                ,  0.300,  0.400,  0.500,  0.600,  0.700,  0.800,  0.900,  1.000,  1.100,  1.200,  1.300,  1.400,  1.500,  1.600,  1.700,  1.800,  1.900,  2.000,  2.100,  2.200,  2.300,  2.400,  2.500,  2.600,  2.700,  2.800,  2.900,  3.000,  3.100,  3.200,  3.300,  3.400,  3.500,  3.600,  3.700,  3.800,  3.900,  4.000,  4.100,  4.200,  4.300,  4.400,  4.500,  4.600,  4.700,  4.800,  4.900,  5.000,  5.100,  5.200,  5.300,  5.400,  5.500,  5.600,  5.700,  5.800,  5.900,  6.000
2000/09/26 00:00,    5.5,  999.0,    5.4,    5.6,    5.4,    5.5,  999.0,  999.0,    5.4,    5.4,    5.5,    5.4,    5.5,    5.5,    5.6,    5.4,  999.0,    5.5,    5.5,  999.0,    5.4,    5.5,    5.5,    5.4,  999.0,  999.0,  999.0,    5.4,  999.0,  999.0,    5.4,    5.4,  999.0,  999.0,    5.5,  999.0,  999.0,  999.0,    5.5,    5.5,  999.0,  999.0,  999.0,    5.5,    5.4,  999.0,    5.5,  999.0,  999.0,  999.0,    5.3,    5.5,  999.0,  999.0,  999.0,  999.0,  999.0,    5.4
2000/09/26 00:10,    5.5,    5.4,    5.5,    5.5,    5.4,    5.6,    5.6,    5.4,    5.5,    5.5,    5.5,    5.6,    5.5,    5.5,    5.5,    5.5,    5.5,    5.5,    5.5,    5.5,    5.6,    5.5,    5.5,    5.4,  999.0,    5.6,    5.5,    5.4,    5.5,    5.4,    5.5,    5.4,    5.6,  999.0,    5.6,    5.5,    5.4,    5.5,    5.5,    5.5,    5.5,    5.5,    5.5,    5.6,    5.5,    5.4,    5.6,    5.5,    5.6,  999.0,    5.5,    5.6,    5.5,    5.5,    5.5,    5.4,    5.5,    5.5
2000/09/26 00:20,    5.5,  999.0,    5.5,    5.5,    5.5,    5.5,    5.6,    5.5,    5.4,    5.5,    5.5,    5.4,    5.6,    5.5,    5.5,    5.7,    5.5,    5.6,    5.7,    5.5,    5.5,    5.7,    5.6,    5.5,    5.5,    5.5,    5.5,  999.0,    5.5,    5.5,    5.5,    5.5,    5.5,    5.4,    5.5,  999.0,    5.5,    5.5,    5.6,    5.4,    5.6,    5.5,    5.4,    5.6,  999.0,    5.5,    5.6,    5.5,    5.5,    5.5,    5.5,    5.4,    5.5,    5.6,    5.5,    5.6,    5.5,    5.6
2000/09/26 00:30,    5.5,    5.4,    5.5,  999.0,    5.5,    5.6,    5.4,    5.4,    5.5,    5.5,    5.5,    5.4,    5.5,    5.5,    5.5,    5.6,    5.5,    5.5,    5.5,    5.5,    5.7,    5.5,  999.0,    5.4,    5.5,    5.6,    5.5,    5.5,    5.6,    5.4,    5.5,    5.5,    5.4,    5.5,  999.0,    5.5,    5.6,    5.5,    5.5,    5.5,    5.5,    5.5,    5.3,    5.5,    5.5,    5.6,    5.6,    5.5,    5.5,    5.5,    5.5,    5.5,    5.5,    5.5,    5.5,    5.5,    5.6,    5.5
2000/09/26 00:40,    5.5,    5.5,    5.5,    5.5,    5.4,    5.5,    5.5,    5.4,    5.5,    5.5,    5.4,    5.5,    5.3,    5.5,    5.4,    5.5,    5.5,    5.5,    5.5,    5.5,    5.5,    5.4,    5.5,    5.4,    5.5,    5.5,    5.5,    5.6,    5.5,    5.6,    5.5,    5.5,    5.5,    5.5,    5.5,    5.6,    5.5,    5.4,    5.6,    5.5,    5.4,    5.4,    5.4,    5.5,    5.4,    5.4,    5.5,    5.5,    5.5,    5.6,    5.6,    5.5,    5.6,    5.6,    5.5,    5.5,    5.5,    5.5
2000/09/26 00:50,    5.6,    5.5,    5.4,    5.6,    5.5,    5.6,    5.5,    5.6,    5.6,    5.6,    5.5,    5.5,    5.6,    5.7,    5.5,    5.5,  999.0,    5.5,    5.6,    5.6,    5.5,    5.6,    5.5,    5.6,    5.5,  999.0,    5.6,    5.6,    5.6,    5.5,  999.0,    5.5,    5.6,  999.0,    5.6,    5.8,    5.7,    5.5,    5.5,    5.6,    5.5,    5.7,    5.6,    5.6,    5.5,    5.6,    5.6,    5.7,  999.0,  999.0,    5.6,  999.0,    5.5,    5.6,    5.5,  999.0,  999.0,    5.7
2000/09/26 01:00,    5.5,    5.4,  999.0,  999.0,    5.4,    5.5,    5.5,    5.4,    5.5,    5.4,    5.4,    5.5,    5.4,    5.5,    5.5,    5.5,  999.0,    5.5,  999.0,    5.5,    5.5,    5.4,    5.4,    5.5,    5.4,    5.4,    5.5,    5.5,    5.4,    5.5,    5.4,    5.4,    5.5,    5.4,    5.3,    5.4,  999.0,  999.0,  999.0,    5.5,  999.0,  999.0,  999.0,  999.0,  999.0,  999.0,  999.0,  999.0,  999.0,  999.0,  999.0,  999.0,  999.0,  999.0,  999.0,  999.0,  999.0,  999.0
2000/09/26 01:10,    5.5,  999.0,  999.0,    5.5,    5.6,  999.0,  999.0,  999.0,    5.5,    5.5,    5.5,    5.5,    5.6,    5.4,    5.5,    5.7,    5.5,  999.0,    5.5,  999.0,  999.0,  999.0,    5.6,    5.5,  999.0,  999.0,  999.0,  999.0,  999.0,    5.5,  999.0,  999.0,  999.0,  999.0,    5.6,  999.0,    5.7,  999.0,    5.5,    5.4,    5.5,  999.0,    5.6,    5.4,    5.6,    5.5,    5.3,    5.4,    5.5,  999.0,    5.5,    5.5,    5.4,    5.4,  999.0,  999.0,  999.0,  999.0
2000/09/26 01:20,    5.5,    5.5,    5.5,    5.5,    5.5,    5.5,  999.0,    5.7,    5.5,    5.6,    5.5,    5.6,    5.6,    5.7,    5.4,    5.5,    5.5,    5.5,    5.6,    5.5,    5.5,  999.0,    5.6,  999.0,  999.0,    5.6,    5.6,    5.8,    5.5,    5.5,  999.0,  999.0,    5.4,  999.0,    5.6,    5.6,  999.0,  999.0,    5.7,    5.6,    5.6,    5.6,    5.5,  999.0,    5.4,    5.5,  999.0,  999.0,  999.0,  999.0,    5.6,    5.6,  999.0,    5.6,  999.0,  999.0,  999.0,  999.0
2000/09/26 01:30,    5.5,    5.6,  999.0,    5.7,    5.6,  999.0,  999.0,  999.0,  999.0,  999.0,    5.6,  999.0,  999.0,  999.0,    5.8,    5.5,  999.0,  999.0,    5.7,  999.0,    5.5,  999.0,  999.0,  999.0,  999.0,    5.4,    5.7,  999.0,  999.0,  999.0,  999.0,  999.0,  999.0,  999.0,  999.0,  999.0,  999.0,  999.0,  999.0,  999.0,  999.0,  999.0,  999.0,  999.0,  999.0,  999.0,  999.0,  999.0,  999.0,  999.0,  999.0,  999.0,  999.0,  999.0,  999.0,  999.0,  999.0,  999.0
2000/09/26 01:40,    5.6,  999.0,    5.5,  999.0,  999.0,    5.6,  999.0,  999.0,  999.0,  999.0,    5.8,  999.0,  999.0,  999.0,  999.0,    5.5,    5.6,  999.0,    5.6,  999.0,    5.7,    5.7,  999.0,  999.0,    5.6,  999.0,    5.6,    5.5,  999.0,    5.6,  999.0,    5.6,    5.6,    5.5,   -5.7,  999.0,    5.7,  999.0,  999.0,  999.0,  999.0,    5.7,    5.5,  999.0,    5.6,  999.0,    5.5,  999.0,  999.0,    5.6,  999.0,    5.6,  999.0,    5.6,   -5.5,  999.0,   -5.5,   -5.5
2000/09/26 01:50,    5.5,    5.5,    5.5,  999.0,  999.0,    5.4,  999.0,  999.0,    5.5,  999.0,  999.0,    5.4,  999.0,  999.0,  999.0,    5.4,    5.5,  999.0,  999.0,  999.0,  999.0,  999.0,  999.0,  999.0,  999.0,  999.0,  999.0,  999.0,  999.0,  999.0,    5.4,    5.4,  999.0,  999.0,   -5.4,  999.0,    5.5,  999.0,  999.0,    5.5,    5.5,  999.0,  999.0,  999.0,    5.4,  999.0,  999.0,  999.0,  999.0,  999.0,  999.0,  999.0,   -5.5,  999.0,   -5.5,  999.0,  999.0,  999.0
2000/09/26 02:00,    5.5,  999.0,    5.6,    5.5,  999.0,  999.0,  999.0,  999.0,  999.0,    5.5,  999.0,    5.5,    5.5,    5.5,    5.6,  999.0,  999.0,    5.6,  999.0,    5.6,    5.5,    5.5,  999.0,    5.4,    5.4,  999.0,  999.0,  999.0,    5.4,    5.4,   -5.6,    5.5,   -5.5,  999.0,   -5.5,   -5.6,  999.0,  999.0,    5.5,  999.0,    5.5,  999.0,    5.6,  999.0,    5.6,  999.0,  999.0,   -5.6,  999.0,  999.0,   -5.4,    5.4,  999.0,   -5.5,   -5.6,  999.0,   -5.6,  999.0
2000/09/26 02:10,    5.5,  999.0,    5.7,  999.0,  999.0,  999.0,  999.0,  999.0,    5.6,  999.0,    5.6,  999.0,    5.5,  999.0,  999.0,  999.0,    5.5,    5.5,    5.5,    5.4,  999.0,    5.5,  999.0,  999.0,  999.0,    5.6,  999.0,  999.0,    5.5,   -5.5,  999.0,  999.0,  999.0,  999.0,  999.0,  999.0,  999.0,    5.6,  999.0,  999.0,    5.5,    5.6,  999.0,    5.5,  999.0,    5.4,    5.5,  999.0,    5.6,  999.0,  999.0,    5.6,  999.0,  999.0,  999.0,    5.6,    5.6,    5.4
2000/09/26 02:20,    5.5,  999.0,    5.4,  999.0,  999.0,    5.3,    5.4,  999.0,    5.5,  999.0,    5.5,    5.5,    5.5,    5.5,    5.5,    5.5,    5.4,    5.4,    5.4,    5.4,    5.4,    5.5,    5.5,    5.4,  999.0,    5.5,    5.5,  999.0,    5.5,  999.0,  999.0,    5.4,  999.0,    5.5,  999.0,  999.0,  999.0,  999.0,    5.4,  999.0,    5.4,    5.5,  999.0,  999.0,    5.5,    5.5,    5.4,    5.4,    5.4,  999.0,  999.0,    5.5,    5.5,  999.0,  999.0,    5.5,    5.5,    5.5
2000/09/26 02:30,    5.5,  999.0,  999.0,  999.0,  999.0,    5.6,    5.5,  999.0,  999.0,    5.5,    5.5,    5.6,    5.6,    5.5,    5.4,    5.4,    5.3,    5.4,  999.0,    5.5,    5.5,  999.0,  999.0,    5.4,  999.0,  999.0,  999.0,  999.0,  999.0,  999.0,  999.0,    5.5,  999.0,  999.0,    5.4,  999.0,    5.4,    5.4,  999.0,  999.0,    5.4,    5.4,    5.4,  999.0,    5.5,    5.6,    5.4,  999.0,  999.0,  999.0,  999.0,    5.5,  999.0,  999.0,    5.3,    5.5,    5.6,  999.0
2000/09/26 02:40,    5.5,    5.5,    5.4,  999.0,  999.0,    5.3,    5.5,  999.0,    5.5,    5.5,    5.4,    5.4,    5.5,  999.0,    5.5,    5.6,    5.5,  999.0,    5.5,    5.4,    5.4,    5.4,    5.5,  999.0,    5.4,    5.6,    5.5,   -5.6,    5.5,  999.0,   -5.4,  999.0,    5.5,  999.0,    5.4,  999.0,    5.5,    5.6,    5.5,   -5.7,    5.6,    5.4,    5.5,    5.5,    5.6,    5.7,    5.3,    5.4,   -5.5,    5.5,   -5.4,    5.6,    5.4,   -5.6,  999.0,    5.7,    5.4,    5.6
2000/09/26 02:50,    5.5,    5.5,    5.5,    5.5,    5.5,  999.0,    5.5,    5.6,    5.5,    5.5,    5.5,    5.6,    5.4,    5.5,    5.6,    5.4,  999.0,    5.4,    5.5,    5.4,    5.4,    5.6,    5.4,    5.5,    5.4,    5.5,    5.5,  999.0,    5.5,    5.5,    5.5,    5.5,  999.0,  999.0,    5.5,  999.0,    5.5,    5.8,    5.4,  999.0,    5.5,    5.6,    5.5,    5.5,    5.5,    5.5,    5.5,    5.4,  999.0,    5.4,    5.5,    5.5,    5.5,    5.6,    5.6,    5.5,    5.5,    5.5
2000/09/26 03:00,    5.5,  999.0,    5.5,    5.6,    5.5,  999.0,    5.5,    5.5,    5.5,    5.5,    5.5,    5.6,    5.5,    5.5,    5.6,    5.6,    5.5,    5.5,    5.4,    5.6,    5.4,    5.4,    5.5,    5.5,    5.5,    5.6,    5.6,    5.5,    5.6,    5.5,    5.5,  999.0,    5.5,    5.5,    5.5,   -5.6,    5.5,    5.4,    5.5,    5.5,    5.5,    5.5,    5.5,    5.5,    5.5,    5.5,    5.4,    5.6,    5.6,    5.5,    5.4,    5.6,    5.5,    5.6,    5.6,    5.5,    5.5,    5.6
2000/09/26 03:10,    5.5,    5.6,    5.6,    5.6,    5.6,    5.5,    5.5,    5.6,    5.5,    5.6,    5.5,    5.6,    5.5,    5.6,    5.5,    5.5,    5.6,    5.6,    5.5,    5.6,    5.5,    5.7,    5.6,    5.5,    5.6,    5.5,    5.5,    5.6,    5.6,    5.6,    5.5,    5.5,    5.5,  999.0,    5.5,    5.5,    5.5,    5.5,    5.6,    5.5,    5.6,    5.6,    5.6,    5.5,    5.6,    5.5,    5.6,    5.6,    5.6,    5.5,    5.6,    5.5,    5.5,    5.6,    5.5,    5.6,    5.6,    5.5
2000/09/26 03:20,    5.5,    5.6,    5.5,    5.5,    5.6,    5.5,    5.6,    5.5,    5.6,    5.5,    5.6,    5.6,    5.6,    5.5,    5.5,    5.5,    5.5,    5.6,    5.5,    5.5,    5.6,    5.5,    5.5,    5.5,    5.6,    5.5,    5.5,    5.4,    5.5,    5.5,    5.5,    5.5,    5.6,    5.6,    5.6,    5.2,    5.5,    5.5,  999.0,    5.5,    5.5,    5.5,    5.3,    5.5,    5.5,    5.5,    5.5,    5.6,    5.6,    5.5,    5.6,    5.5,    5.5,    5.5,    5.6,    5.6,    5.5,    5.5
2000/09/26 03:30,    5.5,  999.0,    5.5,    5.5,    5.5,    5.5,    5.5,    5.5,    5.5,    5.4,    5.6,    5.5,    5.5,    5.5,    5.5,    5.6,    5.5,    5.5,    5.5,    5.6,    5.5,    5.4,    5.5,    5.5,    5.5,    5.6,  999.0,    5.6,    5.5,    5.6,    5.5,    5.5,    5.5,    5.4,    5.5,    5.5,    5.5,    5.5,    5.5,    5.5,    5.6,    5.5,    5.6,    5.5,    5.5,  999.0,    5.5,    5.5,    5.5,    5.5,    5.7,    5.5,    5.5,    5.5,    5.6,    5.5,    5.5,    5.5
2000/09/26 03:40,    5.5,    5.5,    5.5,    5.6,    5.5,    5.5,    5.5,    5.5,    5.6,    5.6,    5.5,    5.6,  999.0,    5.6,    5.5,    5.5,    5.5,    5.5,    5.5,    5.5,    5.5,    5.5,    5.4,    5.5,  999.0,    5.5,    5.5,    5.6,    5.4,    5.5,    5.5,    5.6,    5.6,  999.0,    5.5,    5.5,    5.4,  999.0,    5.5,    5.6,    5.5,    5.5,    5.5,    5.5,    5.6,    5.5,    5.5,  999.0,    5.5,    5.5,    5.5,    5.5,    5.5,  999.0,    5.5,    5.5,    5.5,    5.5
2000/09/26 03:50,    5.5,    5.6,    5.5,    5.5,    5.6,    5.5,    5.5,    5.7,    5.5,  999.0,    5.5,    5.5,    5.5,    5.6,    5.5,    5.5,    5.6,    5.5,    5.5,    5.5,    5.4,    5.5,    5.5,    5.5,    5.5,    5.6,    5.5,    5.5,    5.5,    5.6,    5.6,    5.5,    5.5,    5.5,    5.5,    5.6,    5.5,    5.5,    5.4,    5.5,    5.6,    5.5,    5.5,    5.5,    5.5,    5.6,    5.6,    5.5,    5.5,    5.5,    5.5,    5.6,    5.5,    5.4,    5.4,    5.5,    5.5,    5.6
2000/09/26 04:00,    5.5,    5.4,    5.5,    5.4,    5.5,    5.5,    5.5,    5.5,    5.4,    5.5,    5.5,    5.5,    5.5,    5.4,    5.5,    5.5,    5.4,    5.4,    5.5,    5.5,    5.5,    5.4,    5.4,    5.5,    5.5,    5.5,    5.4,    5.5,    5.5,    5.5,    5.5,    5.4,    5.5,    5.5,  999.0,    5.5,    5.4,    5.5,    5.5,    5.4,    5.5,    5.5,    5.5,    5.4,    5.5,    5.5,    5.4,    5.4,    5.4,    5.5,    5.4,    5.4,    5.4,    5.4,    5.5,    5.5,    5.5,    5.5
2000/09/26 04:10,    5.5,    5.4,    5.4,    5.5,    5.4,    5.4,  999.0,    5.4,    5.6,    5.6,    5.6,    5.5,    5.5,    5.5,    5.5,    5.5,    5.7,    5.5,    5.6,    5.5,    5.5,    5.5,    5.5,    5.6,    5.5,    5.6,    5.5,    5.5,    5.6,  999.0,    5.4,    5.6,    5.5,    5.6,    5.5,    5.5,    5.6,    5.5,    5.5,    5.5,    5.6,    5.5,    5.6,    5.5,    5.5,    5.5,    5.6,    5.5,    5.5,    5.6,    5.6,    5.5,    5.5,    5.5,    5.6,    5.4,    5.5,    5.5
2000/09/26 04:20,    5.5,    5.4,    5.5,    5.6,    5.4,    5.4,    5.5,    5.5,    5.5,    5.5,    5.4,    5.5,    5.4,    5.5,    5.5,    5.5,    5.5,    5.5,    5.4,    5.4,    5.5,  999.0,    5.5,    5.4,    5.5,    5.4,    5.4,    5.5,    5.5,    5.4,    5.4,    5.5,    5.4,    5.4,    5.5,    5.5,    5.5,    5.6,    5.6,    5.5,    5.4,    5.4,    5.4,    5.6,    5.5,    5.4,    5.7,    5.5,    5.4,    5.5,    5.5,    5.5,    5.4,    5.4,    5.5,  999.0,    5.5,    5.5
2000/09/26 04:30,    5.5,    5.5,    5.6,    5.5,    5.5,    5.5,    5.4,    5.4,    5.5,    5.7,  999.0,    5.6,    5.5,    5.4,    5.5,    5.5,    5.5,    5.5,    5.5,    5.5,    5.5,    5.5,    5.5,    5.4,    5.5,    5.4,    5.6,    5.6,    5.5,    5.5,    5.5,    5.5,    5.5,    5.6,    5.5,    5.5,    5.4,    5.5,    5.5,    5.5,    5.4,    5.5,    5.6,    5.5,    5.4,    5.5,    5.4,    5.6,    5.4,    5.5,    5.5,    5.4,    5.5,    5.5,    5.5,    5.5,    5.5,    5.6
2000/09/26 04:40,    5.5,  999.0,    5.5,    5.4,    5.5,    5.4,    5.5,    5.5,    5.4,    5.3,    5.5,    5.4,    5.4,    5.4,    5.6,    5.4,    5.4,    5.4,    5.5,  999.0,    5.5,    5.4,    5.5,    5.4,    5.6,    5.4,    5.4,    5.6,    5.6,    5.5,    5.5,    5.4,    5.4,    5.6,    5.5,    5.6,    5.5,    5.5,    5.4,    5.5,    5.6,    5.4,    5.5,    5.4,    5.6,    5.4,    5.5,    5.5,    5.4,    5.4,    5.4,  999.0,    5.4,    5.4,    5.5,    5.5,    5.6,    5.5
2000/09/26 04:50,    5.5,    5.4,    5.5,    5.5,    5.5,    5.6,    5.6,    5.4,  999.0,    5.4,    5.5,    5.5,    5.5,    5.6,    5.5,    5.5,    5.4,    5.6,    5.6,    5.6,    5.6,    5.6,    5.5,    5.5,    5.5,    5.5,  999.0,    5.5,    5.5,    5.4,    5.4,    5.4,    5.5,    5.5,    5.6,    5.3,    5.5,    5.5,    5.4,  999.0,    5.6,    5.6,    5.6,    5.5,    5.5,    5.5,    5.4,    5.4,  999.0,    5.5,    5.6,    5.6,    5.5,    5.5,    5.7,    5.4,    5.5,    5.5
2000/09/26 05:00,    5.5,  999.0,    5.5,    5.4,    5.4,    5.7,    5.5,    5.4,  999.0,    5.5,    5.5,    5.5,    5.5,    5.4,    5.4,    5.5,    5.5,    5.5,    5.5,    5.6,    5.5,    5.5,  999.0,    5.4,    5.4,    5.6,    5.5,    5.4,    5.5,    5.5,    5.5,    5.4,    5.5,    5.5,    5.5,    5.5,    5.4,    5.5,    5.4,    5.4,    5.5,    5.4,    5.4,    5.4,    5.5,    5.4,    5.5,    5.6,    5.4,    5.5,    5.4,    5.5,    5.5,    5.4,    5.5,    5.5,    5.4,    5.4
2000/09/26 05:10,    5.6,    5.5,    5.5,    5.5,    5.7,    5.4,    5.5,    5.6,    5.6,    5.2,  999.0,    5.6,    5.4,    5.4,    5.5,    5.5,    5.6,    5.5,    5.6,  999.0,    5.6,    5.7,  999.0,    5.6,    5.6,    5.6,    5.5,    5.5,    5.6,    5.7,    5.5,    5.5,  999.0,    5.6,    5.3,    5.6,    5.5,    5.5,    5.5,    5.6,    5.6,    5.5,    5.6,    5.5,    5.5,    5.6,  999.0,    5.7,    5.6,  999.0,    5.6,    5.6,    5.5,    5.6,    5.5,    5.6,    5.6,    5.6
2000/09/26 05:20,    5.5,    5.5,    5.5,    5.5,    5.5,    5.4,    5.5,    5.4,    5.5,    5.6,    5.6,    5.5,    5.5,    5.5,    5.4,    5.5,    5.5,    5.5,    5.5,    5.6,    5.4,    5.5,    5.4,    5.5,    5.6,    5.6,    5.6,    5.4,    5.5,    5.5,    5.5,    5.3,    5.6,    5.5,    5.5,    5.5,    5.5,    5.4,    5.5,    5.5,    5.4,    5.5,    5.5,  999.0,    5.5,    5.4,  999.0,    5.3,    5.5,    5.6,    5.5,    5.5,    5.7,    5.4,    5.4,    5.5,    5.4,    5.6
2000/09/26 05:30,    5.5,    5.5,    5.5,    5.4,    5.6,    5.6,    5.4,    5.4,    5.5,    5.5,    5.6,    5.5,    5.6,    5.6,    5.5,    5.4,    5.4,    5.4,    5.5,  999.0,    5.4,  999.0,    5.5,    5.6,    5.5,    5.5,    5.7,    5.5,    5.5,    5.5,  999.0,    5.5,    5.5,    5.5,    5.5,    5.5,    5.5,    5.5,    5.6,    5.5,    5.5,    5.6,    5.5,    5.5,    5.5,    5.5,    5.5,    5.5,  999.0,  999.0,  999.0,    5.5,    5.4,    5.6,    5.4,    5.5,    5.7,    5.6
2000/09/26 05:40,    5.5,    5.6,    5.6,    5.5,    5.6,    5.5,    5.5,    5.5,    5.4,    5.5,    5.5,    5.6,    5.5,    5.5,    5.6,    5.5,    5.5,    5.6,    5.5,    5.4,    5.5,    5.5,    5.5,    5.5,    5.5,    5.5,    5.5,    5.5,    5.5,    5.5,    5.5,    5.5,    5.5,    5.5,    5.5,    5.5,    5.5,    5.5,    5.5,    5.5,    5.5,    5.4,    5.6,    5.5,    5.5,    5.5,    5.5,    5.5,    5.6,    5.4,    5.6,    5.6,    5.5,    5.4,    5.6,    5.6,    5.5,    5.5
2000/09/26 05:50,    5.5,    5.6,    5.5,    5.4,    5.6,    5.7,    5.5,    5.6,    5.5,    5.5,  999.0,    5.4,    5.5,    5.5,    5.5,    5.4,    5.5,    5.6,    5.5,    5.5,    5.5,    5.8,    5.6,    5.5,    5.4,    5.4,    5.4,    5.5,    5.5,    5.4,    5.6,    5.4,    5.4,  999.0,    5.4,    5.4,    5.6,    5.4,    5.6,    5.5,    5.4,  999.0,    5.5,    5.5,    5.5,    5.4,    5.5,    5.5,    5.5,    5.6,    5.5,    5.5,    5.5,    5.7,    5.6,    5.5,    5.6,    5.5
2000/09/26 06:00,    5.5,    5.5,    5.5,    5.6,    5.4,    5.5,    5.4,  999.0,    5.5,    5.5,    5.5,    5.5,    5.5,    5.5,    5.4,    5.5,    5.5,    5.4,    5.4,    5.6,    5.5,    5.5,    5.4,    5.6,  999.0,    5.4,    5.5,    5.4,    5.5,    5.5,    5.6,    5.6,    5.6,  999.0,    5.4,    5.4,    5.5,    5.5,    5.5,    5.4,    5.5,    5.5,    5.5,    5.5,  999.0,    5.3,    5.6,    5.4,    5.5,    5.5,  999.0,  999.0,    5.5,    5.4,    5.5,    5.5,    5.5,    5.5
2000/09/26 06:10,    5.5,    5.4,  999.0,    5.5,    5.5,    5.5,    5.5,    5.4,    5.5,    5.5,    5.5,    5.5,    5.6,    5.5,    5.3,    5.6,    5.5,    5.5,    5.6,    5.5,    5.6,    5.5,    5.6,    5.5,  999.0,    5.5,    5.6,    5.6,    5.5,    5.5,    5.5,    5.3,    5.4,    5.5,    5.5,    5.5,    5.5,    5.5,    5.4,    5.4,    5.5,    5.5,    5.5,    5.5,    5.6,    5.5,    5.4,    5.5,    5.5,    5.5,    5.4,    5.5,    5.7,    5.5,    5.5,    5.6,    5.5,    5.6
2000/09/26 06:20,    5.5,    5.4,    5.5,    5.5,    5.5,    5.5,    5.5,    5.5,    5.4,    5.5,    5.5,    5.5,    5.5,    5.4,    5.5,    5.6,    5.6,    5.4,    5.4,    5.5,    5.6,    5.6,    5.4,    5.5,    5.6,    5.5,    5.5,    5.5,    5.5,    5.5,  999.0,    5.5,    5.4,    5.4,    5.5,    5.4,    5.5,    5.5,    5.5,    5.5,    5.6,    5.5,    5.5,    5.5,    5.5,    5.5,    5.5,    5.5,    5.6,    5.5,    5.6,    5.4,    5.5,    5.5,    5.6,    5.5,    5.6,    5.4
2000/09/26 06:30,    5.5,    5.5,  999.0,    5.6,  999.0,    5.5,  999.0,    5.4,    5.6,    5.5,    5.4,    5.4,    5.5,    5.5,    5.5,  999.0,    5.5,    5.5,    5.5,    5.4,    5.6,    5.4,    5.5,  999.0,    5.5,    5.5,  999.0,    5.5,  999.0,    5.4,    5.5,    5.4,    5.4,    5.5,    5.4,    5.4,    5.4,    5.5,    5.4,    5.5,  999.0,    5.4,    5.6,    5.4,  999.0,    5.5,    5.6,    5.4,    5.4,    5.4,    5.5,    5.5,    5.5,    5.4,    5.4,    5.6,    5.4,    5.6
2000/09/26 06:40,    5.5,  999.0,    5.5,    5.6,    5.6,    5.6,    5.5,    5.5,    5.3,    5.6,    5.5,    5.5,    5.7,    5.6,    5.5,    5.5,    5.6,    5.5,    5.6,    5.6,    5.4,    5.6,  999.0,    5.6,    5.5,    5.6,    5.6,    5.5,    5.5,    5.5,    5.6,    5.5,    5.6,    5.6,    5.6,    5.5,    5.6,    5.6,    5.4,  999.0,    5.5,    5.5,    5.6,    5.6,    5.6,    5.5,    5.6,    5.6,    5.5,    5.6,    5.8,    5.5,    5.5,    5.5,    5.6,    5.6,    5.6,    5.6
2000/09/26 06:50,    5.5,    5.6,    5.5,    5.5,    5.5,    5.5,  999.0,    5.5,    5.4,    5.6,    5.5,    5.5,  999.0,    5.5,    5.5,    5.4,    5.5,    5.5,    5.6,    5.5,    5.4,    5.4,    5.6,    5.5,    5.5,    5.4,    5.5,    5.4,  999.0,    5.5,    5.4,    5.4,    5.5,    5.5,    5.5,    5.4,    5.5,    5.5,    5.5,    5.5,    5.6,    5.5,    5.5,    5.5,    5.5,    5.5,    5.6,    5.5,    5.5,    5.5,  999.0,    5.5,    5.5,    5.5,    5.4,    5.5,    5.5,    5.4
2000/09/26 07:00,    5.5,    5.4,    5.4,    5.4,    5.4,    5.4,    5.5,    5.4,  999.0,    5.4,    5.4,    5.5,    5.4,    5.3,    5.5,    5.5,    5.4,    5.4,    5.4,    5.5,    5.4,    5.4,    5.4,    5.5,    5.4,    5.4,    5.5,  999.0,  999.0,    5.5,    5.5,    5.4,    5.5,    5.5,    5.5,    5.4,    5.5,    5.5,    5.5,    5.3,    5.4,    5.4,    5.5,    5.4,    5.5,    5.4,    5.4,    5.5,    5.5,    5.4,    5.4,    5.5,    5.4,    5.5,    5.5,    5.4,    5.4,    5.5
2000/09/26 07:10,    5.5,    5.5,    5.5,    5.4,    5.4,    5.5,    5.5,    5.5,    5.4,    5.4,    5.3,    5.4,    5.5,    5.5,    5.4,    5.4,    5.5,    5.4,    5.6,    5.4,    5.5,    5.5,    5.5,    5.4,    5.5,    5.5,    5.4,    5.4,    5.4,    5.5,    5.5,    5.4,    5.3,    5.5,    5.4,    5.4,    5.4,    5.4,    5.5,    5.5,    5.4,    5.5,    5.5,    5.5,    5.4,    5.5,    5.4,    5.5,    5.5,    5.4,    5.4,    5.5,    5.5,    5.4,    5.5,    5.5,    5.6,    5.5
2000/09/26 07:20,    5.5,    5.5,    5.5,    5.4,    5.4,    5.5,    5.5,    5.5,    5.5,    5.5,    5.5,    5.5,    5.4,  999.0,    5.5,    5.5,    5.5,    5.5,    5.6,    5.5,    5.4,    5.5,    5.5,    5.5,    5.5,    5.6,    5.5,    5.5,  999.0,    5.5,    5.6,    5.5,  999.0,    5.5,    5.5,  999.0,    5.5,  999.0,    5.5,  999.0,  999.0,    5.4,    5.4,  999.0,    5.5,    5.4,    5.4,    5.5,    5.3,    5.5,    5.5,    5.4,    5.4,    5.4,    5.4,  999.0,  999.0,  999.0
2000/09/26 07:30,    5.5,    5.5,    5.4,    5.5,    5.5,    5.5,    5.4,    5.4,    5.5,    5.5,    5.4,    5.5,    5.5,    5.5,    5.4,    5.4,    5.5,    5.4,    5.5,    5.6,    5.5,    5.4,    5.5,    5.6,    5.5,    5.6,    5.6,    5.6,  999.0,    5.5,    5.5,    5.5,    5.5,    5.5,    5.5,    5.6,    5.5,    5.6,    5.5,    5.5,    5.6,  999.0,    5.5,    5.6,    5.5,    5.5,  999.0,  999.0,    5.5,    5.6,    5.4,    5.4,    5.5,    5.3,    5.5,    5.4,    5.5,    5.5
2000/09/26 07:40,  999.0,  999.0,  999.0,  999.0,  999.0,  999.0,  999.0,  999.0,  999.0,  999.0,   -5.6,  999.0,  999.0,  999.0,  999.0,  999.0,  999.0,  999.0,  999.0,  999.0,  999.0,  999.0,  999.0,  999.0,  999.0,  999.0,  999.0,  999.0,  999.0,  999.0,  999.0,  999.0,  999.0,  999.0,  999.0,  999.0,  999.0,  999.0,  999.0,  999.0,  999.0,  999.0,  999.0,  999.0,  999.0,  999.0,  999.0,  999.0,  999.0,  999.0,   -5.6,  999.0,  999.0,  999.0,  999.0,   -5.7,  999.0,  999.0
2000/09/26 07:50,    5.6,    5.6,  999.0,  999.0,    5.6,    5.7,  999.0,    5.7,  999.0,  999.0,  999.0,    5.6,    5.4,  999.0,    5.5,  999.0,    5.5,  999.0,    5.6,  999.0,   -5.5,    5.6,   -5.4,    5.7,    5.5,    5.6,    5.6,  999.0,  999.0,    5.6,    5.5,    5.5,    5.6,    5.4,  999.0,  999.0,    5.7,  999.0,  999.0,  999.0,  999.0,  999.0,  999.0,  999.0,  999.0,  999.0,  999.0,  999.0,  999.0,  999.0,   -5.7,   -5.6,  999.0,  999.0,    5.6,   -5.6,  999.0,  999.0
2000/09/26 08:00,    5.5,    5.5,    5.5,    5.6,    5.5,    5.6,   -5.5,    5.6,    5.3,    5.5,  999.0,    5.5,    5.7,    5.5,    5.5,  999.0,    5.5,  999.0,    5.5,    5.5,  999.0,    5.5,   -5.6,    5.6,    5.5,    5.6,    5.6,  999.0,  999.0,  999.0,    5.5,    5.6,    5.4,    5.5,    5.5,    5.6,    5.5,    5.6,   -5.6,  999.0,    5.4,  999.0,    5.6,    5.4,    5.6,  999.0,   -5.5,  999.0,   -5.4,  999.0,   -5.4,   -5.5,  999.0,    5.6,    5.6,   -5.5,    5.5,    5.5
2000/09/26 08:10,    5.5,    5.5,    5.5,    5.5,    5.5,    5.6,    5.4,    5.4,    0.0,  999.0,  999.0,    5.5,    5.5,    5.6,    5.6,    5.5,    5.5,    5.6,    5.5,    5.5,    5.5,    5.5,   -5.5,    5.5,    5.4,    5.5,    5.6,    5.5,  999.0,    5.6,    5.5,    5.5,    5.5,    5.5,    5.5,    5.7,    5.6,    5.5,  999.0,    5.5,    5.5,  999.0,    5.5,    5.5,    5.5,  999.0,  999.0,  999.0,  999.0,    5.5,  999.0,  999.0,  999.0,    5.5,    5.4,  999.0,    5.5,    5.5
2000/09/26 08:20,    5.5,  999.0,    5.5,    5.6,    5.5,    5.5,    5.6,    5.5,   -5.6,    5.4,    5.4,  999.0,    5.4,    5.5,    5.3,  999.0,    5.5,  999.0,    5.6,    5.5,  999.0,    5.4,   -5.4,    5.4,  999.0,  999.0,    5.6,  999.0,   -5.5,  999.0,  999.0,  999.0,  999.0,    5.5,  999.0,    5.5,    0.0,  999.0,   -5.5,   -5.5,    5.4,    5.5,    5.5,  999.0,   -5.5,   -5.4,    5.6,  999.0,   -5.5,  999.0,   -5.6,  999.0,   -5.4,  999.0,  999.0,   -5.5,  999.0,  999.0
2000/09/26 08:30,   -5.5,   -5.6,  999.0,  999.0,   -5.4,    5.6,  999.0,   -5.5,   -5.5,   -5.6,  999.0,  999.0,    5.5,   -5.5,   -5.5,  999.0,  999.0,   -5.4,    5.6,  999.0,    5.7,   -5.5,  999.0,   -5.4,    5.5,   -5.4,    5.6,    5.4,   -5.5,  999.0,    5.5,    5.6,   -5.5,    5.5,  999.0,  999.0,   -5.5,    5.6,   -5.6,   -5.5,    5.5,    5.5,   -5.5,    5.5,    5.5,   -5.5,    5.5,   -5.5,   -5.7,    5.6,    5.5,   -5.5,   -5.6,  999.0,    5.4,   -5.6,    5.5,    5.5
2000/09/26 08:40,   -5.5,   -5.6,   -5.4,   -5.5,   -5.6,   -5.5,   -5.5,   -5.6,   -5.5,   -5.5,   -5.5,   -5.5,   -5.5,   -5.5,   -5.5,  999.0,   -5.5,   -5.5,   -5.5,   -5.4,  999.0,  999.0,   -5.6,   -5.4,    5.4,   -5.4,    5.5,   -5.4,  999.0,   -5.6,    1.8,    5.5,  999.0,   -5.6,   -5.5,   -5.5,    5.5,    5.6,   -5.5,   -5.6,    5.6,    5.6,   -5.6,    5.6,   -5.5,   -5.5,    5.5,    1.9,   -5.4,    0.0,    5.6,    0.0,  999.0,   -5.5,    5.5,   -5.5,    5.5,    5.6
2000/09/26 08:50,   -5.5,   -5.5,   -5.4,   -5.5,   -5.5,   -5.4,  999.0,   -5.5,   -5.6,   -5.5,   -5.5,   -5.5,   -5.6,   -5.5,   -5.5,   -5.5,   -5.5,   -5.5,  999.0,  999.0,   -5.6,  999.0,  999.0,  999.0,  999.0,    5.7,    5.4,    5.5,    5.5,   -0.0,    5.6,    5.6,    5.5,    1.9,   -0.0,   -5.5,    5.5,    5.5,   -5.5,    5.6,    5.5,   -0.1,    5.6,    5.6,    1.8,    1.9,    5.5,    5.5,    5.5,   -0.0,    5.5,    5.5,    1.8,    5.5,    5.5,    5.6,    5.5,    5.5
2000/09/26 09:00,   -5.5,  999.0,   -5.5,   -5.6,   -5.4,  999.0,    5.5,   -5.5,  999.0,   -5.6,   -5.5,   -5.6,  999.0,   -5.5,   -5.5,  999.0,    0.0,   -5.6,   -5.6,   -5.5,  999.0,   -5.4,    5.6,    5.5,    5.6,    5.5,    5.5,    5.5,    5.6,    5.5,    5.5,    5.5,    5.4,    5.4,    5.5,    5.6,    5.5,    5.5,    5.5,    5.6,    5.5,    5.6,    5.5,    5.5,    5.5,    5.5,    5.5,    5.5,    5.5,    5.5,    5.5,    5.5,    5.5,    5.6,    5.5,    5.5,    5.5,    5.6
2000/09/26 09:10,    5.5,  999.0,  999.0,   -5.5,   -5.5,  999.0,    5.5,   -5.5,    5.4,   -5.5,   -5.4,   -5.5,   -5.6,    5.5,  999.0,  999.0,    5.4,  999.0,  999.0,   -1.8,   -5.5,    5.5,    5.5,    5.5,    5.5,    5.5,    5.5,    5.5,    5.5,    5.5,    5.5,  999.0,    5.4,    5.5,    5.4,    5.5,    5.6,    5.5,    5.5,    5.5,    5.5,    5.5,    5.5,    5.5,    5.5,    5.5,    5.5,    5.5,    5.5,    5.4,    5.6,    5.5,    5.4,    5.5,    5.6,    5.5,    5.5,    5.5
2000/09/26 09:20,    5.5,   -5.5,   -5.6,   -5.6,    5.6,  999.0,  999.0,   -5.6,    5.5,   -5.5,   -5.5,  999.0,  999.0,    5.5,  999.0,    5.5,    5.5,   -5.5,    5.5,    5.6,   -5.5,    5.2,    5.5,    5.6,  999.0,    5.5,    5.5,    5.6,    5.5,    5.6,  999.0,    5.5,  999.0,  999.0,  999.0,    5.6,    5.4,  999.0,    5.5,  999.0,  999.0,    5.4,    5.6,    5.5,    5.6,    5.4,    5.5,    5.4,    5.3,    5.5,    5.5,    5.4,    5.5,    5.4,    5.5,    5.5,    5.5,    5.5
2000/09/26 09:30,   -5.5,   -5.5,   -5.5,   -5.6,   -5.5,   -0.1,   -5.6,   -5.5,    0.0,   -5.5,   -5.6,   -5.4,   -0.0,    5.5,    0.0,  999.0,    5.5,    0.0,    5.5,    5.5,   -5.5,    5.5,    0.0,    5.4,  999.0,    5.5,    5.6,    0.0,    5.5,  999.0,    0.1,    5.3,    5.5,  999.0,  999.0,    5.6,    0.0,    5.3,    5.5,    5.4,    5.6,    5.6,    5.4,    5.5,    5.5,    5.5,    5.5,    5.5,    5.5,    5.5,    5.5,    5.5,    5.5,    5.6,    5.5,    5.5,    5.5,    5.6
2000/09/26 09:40,   -1.8,    0.0,   -5.6,   -0.0,    0.0,   -0.0,    0.1,    5.5,   -0.0,   -1.9,   -1.8,   -1.8,   -1.8,   -0.0,    0.0,   -5.5,   -1.8,   -1.9,   -0.0,    0.0,    5.5,   -5.6,   -1.7,   -0.0,    0.0,    0.0,    5.6,   -1.9,    0.0,    0.1,   -5.5,    0.1,   -5.5,    0.0,    5.5,  999.0,  999.0,    0.0,   -5.5,   -5.4,  999.0,   -5.6,   -5.5,   -5.6,   -1.9,   -1.8,   -5.6,   -5.5,   -5.6,   -1.8,   -5.6,   -5.5,   -0.0,   -5.5,   -1.8,   -1.8,   -1.8,   -0.0
2000/09/26 09:50,   -3.7,  999.0,   -5.6,  999.0,  999.0,  999.0,  999.0,  999.0,   -5.7,    0.1,   -5.4,   -5.6,   -5.5,   -2.7,   -5.5,   -3.6,   -5.6,   -5.4,   -3.6,   -2.8,   -1.7,   -3.7,    0.0,   -5.6,   -0.0,   -5.4,   -5.6,   -5.5,    5.6,   -0.0,   -5.4,   -5.5,   -0.0,    0.1,  999.0,  999.0,  999.0,  999.0,    0.1,   -5.6,   -0.0,   -2.7,   -2.8,   -5.6,   -5.5,   -0.1,   -3.7,   -0.1,   -5.5,   -5.5,   -5.5,   -3.7,   -0.0,    0.0,    0.0,    0.1,   -5.4,   -3.6
2000/09/26 10:00,   -1.8,  999.0,   -5.6,  999.0,  999.0,  999.0,  999.0,  999.0,   -5.6,  999.0,    1.8,   -0.1,   -2.8,   -2.8,   -0.0,    1.9,   -0.1,   -5.6,   -2.7,   -1.8,    0.0,   -1.9,   -5.5,   -0.0,   -5.5,   -5.6,   -1.8,   -0.0,   -1.9,   -5.5,   -5.5,   -1.9,    5.6,   -1.9,  999.0,  999.0,  999.0,   -5.5,   -1.8,   -5.5,   -0.0,   -5.6,   -5.6,   -5.6,   -5.5,   -0.1,   -1.9,   -5.5,   -1.8,   -1.8,   -0.1,    5.4,   -5.6,   -1.9,    0.0,   -1.9,    5.6,    0.0
2000/09/26 10:10,   -1.9,  999.0,  999.0,   -5.6,  999.0,  999.0,  999.0,  999.0,  999.0,   -1.8,   -1.8,   -1.9,   -1.9,   -5.6,    0.0,   -5.5,   -1.8,   -5.5,   -5.6,   -0.1,   -0.0,   -1.9,   -1.9,   -1.9,  999.0,   -1.9,   -5.5,   -5.6,   -1.8,   -0.1,   -1.8,    0.0,   -0.0,   -1.8,  999.0,  999.0,  999.0,  999.0,   -0.0,    0.0,   -1.8,   -5.4,    0.0,   -5.6,    0.0,   -1.8,   -0.1,   -2.7,    2.7,  999.0,    1.9,    0.0,    0.1,    1.8,    0.0,    1.8,    1.8,    2.7
2000/09/26 10:20,    1.8,    5.5,    0.0,    5.5,  999.0,  999.0,    5.5,    5.5,    5.6,    5.5,    3.7,    0.1,   -5.5,   -0.0,   -5.5,    0.0,    2.7,    0.0,    5.6,   -5.5,    0.1,  999.0,    1.9,    5.6,  999.0,    0.0,    5.6,    5.5,  999.0,   -5.8,   -0.0,  999.0,  999.0,  999.0,   -5.2,  999.0,  999.0,   -2.8,   -5.5,   -0.0,   -2.7,   -5.5,  999.0,   -5.5,   -5.5,   -1.8,   -1.9,    0.1,   -0.1,   -0.1,   -5.6,   -5.5,   -0.0,   -1.8,   -2.7,   -5.5,   -5.5,   -5.4
2000/09/26 10:30,    0.7,    0.3,   -0.0,   -0.0,    0.2,    0.3,    0.1,    0.2,   -0.3,  999.0,  999.0,  999.0,  999.0,  999.0,  999.0,    5.5,    5.6,    5.5,    5.6,    5.4,    5.6,    5.5,    5.5,    5.6,    5.6,    5.5,  999.0,    5.6,    5.5,    5.6,    5.6,    5.4,    5.6,    5.5,    5.6,    5.5,    5.5,    5.5,    5.5,    5.5,    5.6,    5.5,    5.5,    5.5,    5.6,    5.6,  999.0,    5.5,    5.5,    5.5,    5.6,    5.5,    5.5,    5.5,    5.5,    5.6,    5.5,    5.6
2000/09/26 10:40,    0.2,    1.6,    0.4,    0.6,    0.4,    0.3,    0.5,   -0.1,   -0.3,   -0.7,  999.0,   -0.7,   -0.0,  999.0,  999.0,  999.0,  999.0,  999.0,  999.0,    5.5,    5.4,    5.6,    5.4,    5.5,    5.5,    5.7,    5.4,    5.5,    5.5,    5.4,    5.5,    5.5,    5.5,    5.5,    5.4,    5.5,    5.6,    5.6,    5.5,    5.5,    5.6,    5.5,    5.5,    5.5,    5.5,    5.5,    5.5,  999.0,    5.5,    5.6,    5.4,  999.0,    5.5,    5.5,  999.0,    5.5,    5.5,  999.0
2000/09/26 10:50,    0.7,    0.1,   -0.3,   -0.4,   -0.8,   -0.2,   -0.8,   -0.9,   -0.9,   -0.6,   -0.7,   -0.6,   -0.3,  999.0,  999.0,  999.0,  999.0,  999.0,  999.0,  999.0,  999.0,  999.0,  999.0,  999.0,  999.0,  999.0,    0.2,  999.0,    2.8,  999.0,  999.0,  999.0,  999.0,  999.0,  999.0,  999.0,  999.0,  999.0,  999.0,   -5.6,  999.0,  999.0,    5.6,    5.5,   -5.6,  999.0,   -5.5,   -5.4,    0.0,    5.7,   -5.6,  999.0,  999.0,  999.0,   -5.7,  999.0,  999.0,   -5.5
2000/09/26 11:00,  999.0,   -0.6,   -0.9,   -1.0,   -1.0,   -0.5,   -0.8,   -0.5,   -0.6,   -1.2,   -1.0,   -0.6,   -0.1,  999.0,  999.0,  999.0,  999.0,  999.0,    5.5,  999.0,    5.6,    5.5,    5.6,  999.0,  999.0,    5.6,    5.5,    5.6,    5.5,    5.6,    2.8,    5.7,   -0.0,    5.5,    2.9,   -0.0,    0.1,   -0.0,    5.6,   -0.0,    5.5,    5.6,    0.0,    2.8,    5.5,    5.6,   -5.3,   -5.5,   -1.8,   -0.0,    2.7,    0.0,   -1.8,    0.1,    5.6,   -3.7,   -0.0,   -3.7
2000/09/26 11:10,   -5.5,   -3.4,   -3.3,    0.5,   -3.1,  999.0,   -5.5,   -0.4,   -0.0,    5.6,   -5.4,   -0.4,   -3.2,   -0.0,    5.5,  999.0,    5.7,    0.0,   -5.6,  999.0,  999.0,   -0.0,    5.6,   -5.6,  999.0,  999.0,  999.0,  999.0,   -5.6,   -5.5,   -5.5,  999.0,  999.0,   -5.7,  999.0,   -5.5,  999.0,   -5.4,  999.0,   -5.4,  999.0,  999.0,   -5.6,  999.0,   -5.5,  999.0,   -5.5,   -5.5,   -5.5,   -5.5,   -5.6,  999.0,  999.0,   -5.4,  999.0,   -5.5,   -5.5,  999.0
2000/09/26 11:20,   -5.5,   -5.5,  999.0,   -5.5,   -5.5,   -5.6,   -5.6,   -5.5,   -5.6,   -5.5,   -5.6,   -5.5,   -5.6,   -5.5,   -5.5,   -5.4,   -5.5,   -5.5,   -5.5,   -5.6,   -5.6,  999.0,  999.0,   -5.5,   -5.6,   -5.5,   -5.5,   -5.6,   -5.5,   -5.5,  999.0,   -5.5,   -5.6,   -5.7,   -5.5,  999.0,   -5.6,   -5.6,   -5.5,   -5.5,   -5.5,   -5.5,   -5.6,   -5.4,   -5.6,   -5.5,   -5.5,   -5.6,   -5.5,  999.0,   -5.5,   -5.5,   -5.6,   -5.5,   -5.6,   -5.6,   -5.5,   -5.6
2000/09/26 11:30,   -1.8,   -5.6,   -5.5,    0.0,    0.0,   -5.6,   -5.5,   -1.9,   -1.8,   -0.0,   -5.4,   -1.8,   -1.8,    0.0,   -1.9,   -0.0,   -1.8,   -1.9,   -1.8,   -1.9,   -5.6,   -1.9,   -5.6,   -5.5,   -0.0,   -1.8,   -3.7,   -2.9,   -0.0,   -5.5,   -5.6,   -2.7,   -2.8,   -0.0,   -5.5,   -5.5,   -0.0,   -3.7,   -5.6,   -5.5,   -5.6,   -5.5,   -3.8,   -2.8,    0.0,   -2.8,   -1.9,   -1.9,   -3.7,   -3.7,   -5.6,   -2.7,   -5.5,   -5.5,   -2.8,   -5.5,   -5.5,   -2.8
2000/09/26 11:40,    1.8,    2.8,    1.8,    3.7,    5.5,    0.1,    1.9,   -0.0,    1.8,    1.9,    1.9,    1.8,    1.9,    3.7,    2.7,    5.6,    5.5,    1.8,    0.0,    0.0,    1.8,    0.0,    2.7,    5.5,    5.5,    5.5,    0.1,   -2.7,    1.9,    0.0,   -3.7,    0.0,   -2.8,    2.8,   -0.0,   -5.6,   -1.8,   -5.4,   -3.7,   -5.5,   -3.7,    0.0,   -1.8,   -2.8,   -2.8,   -3.7,   -3.7,   -5.4,   -5.6,   -3.6,   -5.5,   -3.6,   -5.5,   -3.6,   -3.7,    0.0,   -3.7,   -1.8
2000/09/26 11:50,   -5.5,  999.0,  999.0,  999.0,  999.0,  999.0,  999.0,   -2.8,    0.0,   -0.0,   -5.6,  999.0,   -5.6,   -5.6,   -5.6,   -5.5,   -5.5,   -5.5,   -5.6,  999.0,   -5.5,   -5.5,   -5.6,  999.0,   -5.6,   -5.5,   -5.5,  999.0,   -5.6,   -5.6,   -5.6,   -5.5,   -5.5,   -5.6,   -5.5,   -5.5,   -5.5,   -5.5,   -5.6,   -5.5,   -5.5,   -5.5,   -5.5,  999.0,   -5.5,   -5.5,   -5.6,  999.0,   -5.5,   -5.5,   -5.5,  999.0,   -5.6,   -5.6,   -5.5,   -5.5,   -5.6,  999.0
2000/09/26 12:00,  999.0,  999.0,  999.0,  999.0,  999.0,  999.0,  999.0,    5.5,    5.5,  999.0,  999.0,  999.0,    5.5,  999.0,  999.0,  999.0,  999.0,  999.0,    5.6,  999.0,  999.0,  999.0,  999.0,  999.0,  999.0,  999.0,  999.0,  999.0,  999.0,  999.0,  999.0,  999.0,  999.0,  999.0,  999.0,  999.0,  999.0,  999.0,  999.0,  999.0,  999.0,  999.0,  999.0,  999.0,  999.0,  999.0,  999.0,  999.0,  999.0,  999.0,  999.0,  999.0,  999.0,  999.0,  999.0,  999.0,  999.0,  999.0
2000/09/26 12:10,    5.5,  999.0,    5.6,    5.4,  999.0,  999.0,    5.5,    5.6,    5.5,  999.0,    5.5,    5.6,    5.6,    5.4,    5.5,    5.4,    5.5,  999.0,  999.0,    5.5,    5.5,    5.5,  999.0,  999.0,  999.0,  999.0,  999.0,    5.6,    5.6,  999.0,  999.0,  999.0,    5.6,  999.0,  999.0,  999.0,  999.0,  999.0,  999.0,    5.5,  999.0,  999.0,  999.0,  999.0,  999.0,  999.0,    5.5,  999.0,    5.5,  999.0,  999.0,  999.0,  999.0,  999.0,  999.0,  999.0,    5.5,    5.8
2000/09/26 12:20,  999.0,  999.0,  999.0,  999.0,  999.0,  999.0,  999.0,    5.5,    5.5,    5.5,  999.0,    5.5,    5.6,  999.0,    5.6,  999.0,    5.5,    5.5,  999.0,    5.5,    5.5,    5.5,  999.0,  999.0,  999.0,  999.0,  999.0,  999.0,  999.0,  999.0,  999.0,  999.0,  999.0,  999.0,  999.0,  999.0,  999.0,  999.0,  999.0,  999.0,  999.0,  999.0,  999.0,  999.0,  999.0,  999.0,  999.0,  999.0,  999.0,  999.0,  999.0,  999.0,  999.0,  999.0,  999.0,  999.0,  999.0,  999.0
2000/09/26 12:30,   -5.5,   -5.6,  999.0,   -5.5,   -5.5,   -0.1,   -3.6,  999.0,   -5.6,   -5.5,    0.1,   -5.6,    2.7,   -5.5,   -5.4,   -5.5,   -0.0,   -0.1,   -1.8,  999.0,  999.0,    2.8,    5.5,   -5.4,   -5.5,    5.6,   -5.4,   -5.6,   -5.5,  999.0,  999.0,   -5.5,  999.0,   -5.6,   -5.5,  999.0,   -5.5,   -5.5,   -4.7,   -5.6,  999.0,    5.5,  999.0,    5.7,   -5.6,   -5.6,  999.0,   -5.6,    5.6,  999.0,  999.0,   -5.5,   -5.5,    5.7,    5.5,   -5.5,   -1.8,    5.4
2000/09/26 12:40,   -5.5,   -5.5,   -5.6,  999.0,   -5.5,   -5.5,   -5.5,   -5.6,  999.0,   -5.5,   -5.5,   -5.5,   -5.5,   -5.6,   -5.5,   -5.5,   -5.6,   -5.6,  999.0,  999.0,   -5.5,   -5.5,   -5.6,   -5.5,   -5.5,   -5.5,   -5.5,   -5.5,   -5.5,   -5.6,   -5.3,   -5.3,   -5.5,   -5.6,  999.0,   -5.6,  999.0,  999.0,  999.0,   -5.5,   -3.3,  999.0,  999.0,  999.0,  999.0,  999.0,  999.0,  999.0,  999.0,  999.0,  999.0,  999.0,  999.0,   -5.6,   -5.5,  999.0,  999.0,  999.0
2000/09/26 12:50,  999.0,  999.0,  999.0,  999.0,  999.0,  999.0,   -5.5,   -5.5,  999.0,  999.0,  999.0,  999.0,   -5.6,  999.0,   -5.5,  999.0,  999.0,   -5.5,  999.0,   -5.5,  999.0,   -5.4,   -5.4,  999.0,  999.0,  999.0,  999.0,  999.0,  999.0,  999.0,  999.0,  999.0,  999.0,  999.0,  999.0,  999.0,  999.0,  999.0,  999.0,  999.0,  999.0,  999.0,  999.0,  999.0,  999.0,  999.0,  999.0,  999.0,  999.0,  999.0,  999.0,  999.0,  999.0,  999.0,  999.0,  999.0,  999.0,  999.0
2000/09/26 13:00,   -0.0,  999.0,    5.5,    0.0,    5.6,   -5.4,  999.0,    0.1,   -5.6,    0.1,  999.0,    5.5,   -5.5,   -5.7,    5.5,   -5.5,  999.0,  999.0,   -5.3,   -5.5,   -5.5,   -5.6,   -0.1,    5.5,  999.0,   -5.4,  999.0,    0.0,  999.0,    0.0,    5.6,  999.0,    5.6,   -0.1,    5.4,    5.5,    5.5,  999.0,   -5.6,  999.0,    5.5,   -5.5,  999.0,   -0.0,   -0.1,    0.0,    5.5,   -0.1,  999.0,    5.6,   -0.0,   -0.1,    0.0,   -5.5,  999.0,    5.5,    0.1,   -5.5
2000/09/26 13:10,    2.8,   -0.0,   -0.0,    5.6,    5.7,   -0.0,   -0.1,    0.1,    5.6,    5.6,  999.0,    1.9,    2.8,    5.4,    5.7,  999.0,    5.5,   -0.0,  999.0,    1.8,    5.6,    5.5,    5.5,  999.0,   -5.7,  999.0,   -5.5,  999.0,   -5.5,  999.0,  999.0,   -5.5,  999.0,  999.0,    5.6,    5.5,    0.0,  999.0,   -5.6,    5.5,  999.0,   -5.6,  999.0,  999.0,  999.0,  999.0,    5.6,    5.4,    5.6,  999.0,  999.0,  999.0,    5.5,    5.5,  999.0,    5.6,    5.5,    5.6
2000/09/26 13:20,    5.5,    5.6,    5.4,    5.5,  999.0,    5.6,    5.5,    5.5,    5.6,  999.0,    5.5,    5.6,  999.0,    5.4,    5.6,    5.6,    5.5,    5.5,    5.5,  999.0,    5.6,    5.5,    5.5,    5.6,    5.5,    5.6,    5.4,  999.0,  999.0,    5.5,    5.5,    5.5,  999.0,    5.5,    5.7,  999.0,    5.4,  999.0,    5.5,    5.5,    5.6,  999.0,    5.5,  999.0,    5.5,    5.5,    5.5,  999.0,  999.0,    5.6,    5.5,    5.6,  999.0,    5.6,  999.0,    5.5,    5.6,  999.0
2000/09/26 13:30,   -0.0,   -5.5,   -5.4,    5.6,  999.0,   -5.6,   -5.5,    5.6,    0.0,   -0.0,    5.5,  999.0,    2.7,    0.0,    0.1,   -0.0,    1.9,   -0.0,   -0.0,   -0.0,    1.9,    0.0,   -0.0,   -1.9,   -5.5,   -5.5,  999.0,    5.6,    5.5,   -5.5,  999.0,   -0.0,    0.0,  999.0,   -5.6,   -5.6,  999.0,    5.6,    5.4,  999.0,   -5.6,   -5.5,   -5.5,    5.4,  999.0,    5.4,    5.5,   -5.6,    0.0,    5.5,    5.5,    5.4,    0.0,    5.6,   -0.0,  999.0,    0.1,  999.0
2000/09/26 13:40,    5.5,  999.0,    5.5,  999.0,  999.0,    5.5,    5.6,  999.0,  999.0,    5.5,  999.0,  999.0,    5.6,    5.4,  999.0,    5.6,    5.6,  999.0,    5.5,    5.6,    5.6,    5.5,    5.5,    5.5,    5.6,    5.5,    5.5,    5.6,    5.5,    5.6,    5.5,    5.5,    5.6,    5.7,    5.6,  999.0,  999.0,  999.0,  999.0,  999.0,  999.0,  999.0,  999.0,  999.0,  999.0,  999.0,  999.0,  999.0,  999.0,  999.0,  999.0,   -5.5,  999.0,   -5.5,   -5.5,  999.0,   -5.4,  999.0
2000/09/26 13:50,    1.8,   -0.2,    3.6,   -0.0,  999.0,    5.6,    5.5,    5.5,    1.9,    0.0,    5.6,    5.5,    2.7,    2.8,    2.7,    1.8,   -0.0,   -0.0,    0.0,  999.0,   -0.0,    2.8,   -0.0,    5.5,   -5.5,    3.7,   -5.5,    5.5,   -0.0,   -5.5,    2.9,   -5.6,    0.1,  999.0,  999.0,  999.0,    5.6,  999.0,    5.4,   -0.1,    5.5,   -5.5,    0.0,    5.5,  999.0,   -5.6,   -5.6,    0.0,   -5.7,    5.5,   -0.0,   -5.5,   -5.6,  999.0,   -5.6,   -5.5,   -5.5,   -5.5
2000/09/26 14:00,   -1.8,    0.0,   -5.6,   -5.4,   -5.5,   -5.5,   -5.5,   -1.8,   -5.5,   -5.7,   -5.5,    5.5,   -2.7,   -5.5,   -5.5,    0.0,    0.0,   -5.5,   -5.4,   -5.4,   -2.7,   -0.0,   -0.0,   -5.5,    0.0,   -5.5,  999.0,    0.0,    0.1,   -5.5,   -5.5,   -5.5,  999.0,   -0.0,   -5.6,    0.0,   -5.5,   -5.5,    0.1,   -5.5,   -5.5,   -5.6,    5.6,   -5.5,    0.0,   -5.6,   -5.5,  999.0,   -5.6,  999.0,    0.0,   -5.5,    0.0,    5.6,  999.0,   -5.4,    0.0,    5.6
2000/09/26 14:10,   -0.0,    2.7,    1.8,   -0.1,   -0.0,    2.8,    1.8,   -0.0,    2.7,   -0.0,   -2.7,   -2.8,    0.0,   -0.0,   -1.8,   -2.7,  999.0,   -2.7,    5.4,   -2.7,    5.6,   -5.6,   -2.7,   -2.7,  999.0,  999.0,    1.8,    5.5,   -5.6,    0.1,  999.0,  999.0,  999.0,  999.0,    5.4,  999.0,    5.6,    5.5,  999.0,    5.5,  999.0,    5.4,    5.5,  999.0,  999.0,    5.6,    5.5,  999.0,    5.7,  999.0,    5.6,    5.5,    5.4,    5.5,    5.5,    5.5,    5.6,  999.0
2000/09/26 14:20,   -5.5,   -5.5,   -5.5,   -5.5,   -5.5,   -5.5,   -5.5,   -5.5,   -5.5,   -5.6,   -5.5,   -5.5,   -5.5,   -5.5,   -5.5,  999.0,   -5.5,  999.0,  999.0,  999.0,  999.0,  999.0,  999.0,  999.0,  999.0,  999.0,  999.0,  999.0,  999.0,  999.0,  999.0,  999.0,  999.0,    5.6,    5.5,  999.0,    5.6,    5.5,  999.0,  999.0,    5.6,    5.4,    5.5,  999.0,  999.0,    5.6,    5.4,    5.5,  999.0,    5.6,  999.0,    5.5,    5.6,    5.5,  999.0,    5.5,  999.0,    5.5
2000/09/26 14:30,   -5.5,   -5.6,   -5.5,   -5.5,   -5.6,   -5.5,   -5.5,   -5.6,   -5.5,   -5.5,   -5.5,   -5.5,   -5.5,   -5.5,   -5.5,   -5.4,  999.0,  999.0,  999.0,  999.0,  999.0,  999.0,  999.0,  999.0,    0.1,  999.0,  999.0,  999.0,  999.0,  999.0,  999.0,  999.0,  999.0,    5.5,  999.0,  999.0,  999.0,    5.5,    5.5,  999.0,    5.5,    5.5,    5.5,  999.0,    5.5,    5.4,    5.5,    5.5,    5.3,    5.4,    5.5,  999.0,    5.5,    5.6,    5.5,    5.6,  999.0,  999.0
2000/09/26 14:40,   -5.5,   -5.5,   -5.5,   -5.6,   -5.5,   -5.5,   -5.5,   -5.6,   -5.6,   -5.6,   -5.5,   -5.5,  999.0,   -5.5,   -5.5,   -5.5,  999.0,   -5.4,  999.0,  999.0,  999.0,  999.0,  999.0,    5.5,    5.5,  999.0,  999.0,  999.0,  999.0,  999.0,  999.0,  999.0,  999.0,  999.0,  999.0,  999.0,  999.0,  999.0,  999.0,  999.0,  999.0,  999.0,  999.0,  999.0,  999.0,  999.0,  999.0,  999.0,  999.0,  999.0,  999.0,  999.0,  999.0,  999.0,  999.0,  999.0,  999.0,  999.0
2000/09/26 14:50,   -3.7,   -5.6,   -5.6,   -5.5,   -5.5,   -5.5,   -5.5,   -5.5,   -5.5,   -5.5,   -5.5,   -5.5,    5.5,    5.4,  999.0,    5.6,  999.0,  999.0,  999.0,  999.0,  999.0,  999.0,  999.0,  999.0,  999.0,  999.0,  999.0,  999.0,  999.0,  999.0,  999.0,  999.0,  999.0,  999.0,  999.0,    5.6,   -5.6,  999.0,  999.0,  999.0,  999.0,  999.0,    5.4,    5.6,  999.0,   -5.5,  999.0,    5.6,    5.5,  999.0,    5.6,    5.7,    5.5,    0.0,   -5.6,  999.0,    5.6,    5.6
2000/09/26 15:00,   -5.8,   -6.0,   -6.0,   -6.2,   -6.4,   -6.8,   -6.8,  999.0,  999.0,  999.0,   -7.2,   -6.3,   -5.6,   -6.3,   -6.3,   -6.2,   -6.0,   -6.1,   -6.0,   -5.7,   -5.9,   -5.6,   -5.6,   -5.5,   -5.5,   -5.5,   -5.6,   -5.6,   -5.5,   -5.6,   -5.5,   -5.5,   -5.6,   -5.5,   -5.5,   -5.6,   -5.5,   -5.5,   -5.0,   -4.0,  999.0,  999.0,  999.0,  999.0,  999.0,  999.0,  999.0,  999.0,  999.0,  999.0,  999.0,  999.0,  999.0,   -5.6,   -5.5,  999.0,   -5.4,    5.6
2000/09/26 15:10,   -5.4,   -5.3,   -5.6,   -5.7,   -5.7,   -5.7,   -5.7,   -5.7,   -5.7,   -5.7,   -5.8,   -5.9,   -5.9,   -5.8,   -5.9,   -5.9,   -6.0,   -6.0,   -6.1,   -6.0,   -6.1,   -6.1,   -6.0,   -6.5,   -6.0,   -6.1,   -6.2,   -6.3,   -5.9,   -5.8,   -5.7,   -5.7,   -5.6,   -5.7,   -5.5,   -5.6,   -5.6,   -5.6,   -5.8,   -4.3,   -2.8,   -1.9,  999.0,  999.0,  999.0,  999.0,  999.0,  999.0,  999.0,  999.0,  999.0,  999.0,  999.0,  999.0,  999.0,  999.0,  999.0,  999.0
2000/09/26 15:20,   -5.7,   -5.8,   -5.8,   -5.8,   -5.8,   -5.8,   -5.7,   -5.7,   -5.7,   -5.6,   -5.6,   -5.6,   -5.6,   -5.6,   -5.6,   -5.5,   -5.5,   -5.5,   -5.4,   -5.4,   -5.3,   -5.4,   -5.4,   -5.3,   -5.3,   -5.2,   -5.3,   -5.6,   -5.5,   -5.6,   -5.5,   -5.4,   -5.5,   -5.6,   -5.5,   -5.5,   -5.6,   -5.4,   -5.5,   -3.5,   -2.2,   -1.4,   -1.4,   -1.5,   -1.6,   -1.6,   -1.6,   -1.4,   -1.8,   -2.0,   -2.0,   -2.1,   -1.9,   -1.8,   -1.8,   -1.9,   -1.9,   -2.1
2000/09/26 15:30,  999.0,  999.0,  999.0,  999.0,   -5.1,   -5.5,   -5.5,   -5.6,   -5.7,   -5.7,   -5.7,   -5.7,   -5.6,   -5.4,   -5.8,   -5.8,   -5.9,   -6.0,   -5.7,   -5.7,   -5.6,   -5.5,   -5.8,   -5.7,   -5.7,   -5.8,   -5.8,   -6.4,   -6.3,   -5.5,   -5.6,   -5.6,  999.0,  999.0,  999.0,  999.0,  999.0,   -5.7,   -4.9,   -3.1,   -2.0,   -1.6,   -1.6,   -1.7,   -1.8,   -1.8,   -1.8,   -1.7,   -1.7,   -1.7,   -1.6,   -1.6,   -1.5,   -1.5,   -1.4,   -1.4,   -1.5,   -1.7
2000/09/26 15:40,   -5.2,   -5.2,   -5.1,   -5.0,   -5.0,   -4.9,   -4.8,   -4.9,   -4.8,   -4.8,   -4.8,   -4.8,   -5.1,   -4.7,   -4.7,   -5.0,   -5.0,   -5.1,  999.0,   -5.5,  999.0,   -5.2,   -5.2,   -5.3,   -5.3,   -5.3,   -5.3,   -5.4,   -5.1,   -5.4,   -5.3,   -5.4,   -5.6,   -5.1,   -5.6,   -5.5,  999.0,   -5.6,   -5.3,   -3.5,  999.0,  999.0,  999.0,   -1.3,  999.0,  999.0,  999.0,  999.0,  999.0,   -1.1,   -0.9,   -1.1,   -0.9,   -1.3,   -1.2,   -1.0,   -1.1,   -1.0
2000/09/26 15:50,   -2.7,   -0.2,   -1.1,    0.3,   -2.6,   -2.5,   -2.4,   -2.3,   -0.4,   -2.7,   -3.0,    0.1,   -0.1,    0.3,   -2.8,   -1.7,   -4.1,   -3.3,   -3.2,   -2.0,   -4.7,   -4.1,  999.0,  999.0,  999.0,    0.3,  999.0,  999.0,  999.0,  999.0,  999.0,   -5.5,  999.0,   -5.4,  999.0,   -5.5,   -5.8,   -5.4,   -5.5,  999.0,  999.0,  999.0,  999.0,  999.0,  999.0,   -0.1,   -0.3,   -0.2,   -0.2,  999.0,  999.0,  999.0,   -0.6,  999.0,  999.0,  999.0,  999.0,  999.0
2000/09/26 16:00,    0.0,   -0.6,   -0.6,   -0.6,   -0.8,   -0.8,   -0.7,   -0.3,   -0.4,   -0.0,    0.0,   -0.1,    0.1,    0.1,    0.0,    0.1,    0.4,    0.1,   -2.7,   -0.0,   -1.4,   -1.3,   -1.4,   -2.8,   -0.4,   -2.6,   -5.6,  999.0,  999.0,   -5.5,  999.0,  999.0,   -5.5,   -5.5,   -5.5,   -5.6,   -5.5,   -5.6,   -5.5,   -5.4,   -5.5,   -5.4,   -5.5,   -5.5,   -2.8,   -4.2,   -4.2,   -5.5,   -4.2,   -5.6,   -5.6,   -5.5,   -3.0,   -5.5,   -5.5,   -5.5,   -5.5,   -5.5
2000/09/26 16:10,   -0.0,   -0.3,   -0.3,   -0.3,   -0.2,   -0.4,   -0.7,   -0.1,   -0.2,   -0.2,   -0.1,   -0.0,   -0.2,    0.1,   -0.2,   -0.4,  999.0,    0.1,   -0.1,   -0.3,   -0.4,   -0.2,   -0.2,   -0.1,   -0.0,  999.0,  999.0,  999.0,  999.0,  999.0,  999.0,  999.0,  999.0,   -5.5,   -5.5,  999.0,   -5.4,   -5.4,   -5.5,   -5.4,   -5.5,  999.0,   -5.5,   -5.5,   -5.5,   -5.6,   -5.5,   -5.4,   -5.6,   -5.4,   -5.4,   -5.5,   -5.4,   -5.6,   -5.5,   -5.5,   -5.5,   -5.4
2000/09/26 16:20,    5.5,    3.5,    3.7,    2.9,    3.8,   -0.2,    5.5,    3.7,    5.5,    5.5,    5.6,    3.7,    5.5,    3.7,    3.7,    2.6,    5.6,    3.6,    5.5,    3.6,    5.7,    3.5,    1.4,    1.3,   -0.2,    5.5,    5.6,   -0.0,   -0.0,    5.5,    0.0,    0.0,   -5.4,   -5.5,   -5.5,   -5.5,   -5.5,   -5.5,   -5.6,   -1.9,   -5.6,   -5.4,   -5.5,   -5.5,   -5.5,   -5.5,   -3.7,   -5.5,   -5.5,   -5.6,   -5.5,   -5.6,   -5.5,   -3.6,   -5.4,   -5.5,   -5.5,   -1.8
2000/09/26 16:30,   -1.8,   -0.9,   -0.0,   -5.6,   -5.5,    0.0,    5.6,   -5.6,  999.0,   -1.9,    5.6,   -5.5,   -5.6,   -0.0,    5.6,    5.5,    0.0,  999.0,   -5.5,    5.5,   -1.9,   -5.6,    5.5,    5.5,    0.0,    5.6,   -1.8,   -5.5,   -1.9,   -1.8,   -1.9,   -5.4,   -5.5,   -5.6,   -5.5,   -5.5,   -5.5,   -0.0,   -1.8,   -1.9,   -5.5,   -0.1,   -0.0,   -1.8,   -1.9,    0.1,   -0.0,   -5.5,   -5.5,   -5.5,   -5.7,   -5.6,   -5.5,   -5.6,   -5.5,   -1.9,    0.0,   -5.5
2000/09/26 16:40,   -2.8,   -2.6,    0.4,   -5.5,   -2.8,   -2.9,   -0.0,   -0.0,   -3.7,   -0.0,   -0.0,   -2.8,   -2.6,   -5.5,  999.0,   -2.7,   -2.6,  999.0,   -0.0,    5.5,   -5.5,  999.0,    5.4,  999.0,    5.4,   -0.1,   -0.0,   -5.6,    5.4,   -0.0,    5.5,   -0.0,   -5.5,  999.0,   -5.5,   -5.5,  999.0,   -0.1,   -0.1,    5.5,    5.4,    0.0,   -0.0,  999.0,   -5.7,    5.5,   -0.0,   -5.5,   -5.6,   -5.6,   -5.5,  999.0,   -5.6,   -5.6,   -5.6,   -5.5,   -5.6,   -5.5
2000/09/26 16:50,    5.5,    5.5,    5.5,    5.5,    5.5,    5.5,    5.6,    5.4,    5.5,    5.5,    5.5,    5.4,    5.5,    5.5,    5.5,    5.5,    5.6,    5.4,    5.5,    5.6,    5.5,    5.5,    5.5,    5.6,    5.4,    5.5,    5.5,    5.6,    5.5,    5.5,    5.5,    5.5,    5.5,  999.0,  999.0,  999.0,    5.5,  999.0,    5.5,    5.5,    5.6,    1.8,    1.9,    5.6,    5.5,    5.6,    0.1,   -5.5,  999.0,  999.0,   -5.6,  999.0,  999.0,   -5.4,    5.5,  999.0,  999.0,  999.0
2000/09/26 17:00,   -3.7,   -5.4,   -1.8,   -0.0,   -1.8,   -1.8,   -5.5,   -3.7,   -5.5,    0.1,    0.0,   -5.5,   -2.7,    5.4,   -5.6,    5.7,    5.5,    5.5,   -5.6,   -0.0,   -1.9,    5.5,    5.5,  999.0,   -5.5,   -5.5,   -5.5,   -5.4,   -5.5,   -5.5,   -1.9,   -5.4,    0.1,    5.5,   -5.5,    5.6,    5.5,    5.6,    3.7,   -0.0,   -0.0,   -5.5,    1.8,   -0.0,    1.8,   -0.1,   -0.0,   -2.8,   -0.0,   -2.8,   -5.5,   -0.1,   -0.0,    5.4,  999.0,    0.0,   -1.8,   -1.8
2000/09/26 17:10,   -3.7,   -3.7,   -5.5,   -5.6,   -5.6,   -6.3,   -5.0,   -5.3,   -3.7,   -1.9,   -5.3,   -5.3,   -1.8,   -5.5,   -5.5,   -5.5,   -5.6,   -5.5,   -5.5,   -5.5,   -5.5,   -5.5,  999.0,   -5.5,   -5.6,   -5.6,   -5.5,   -5.5,   -5.5,   -5.5,   -5.7,   -5.5,   -5.6,  999.0,   -5.6,  999.0,   -5.5,   -5.6,   -5.6,   -5.6,   -5.6,   -5.5,   -5.5,   -5.5,   -5.5,   -5.5,   -5.5,   -5.5,   -5.5,   -5.6,   -5.5,   -5.5,   -5.6,   -2.8,   -5.6,   -1.9,   -1.9,   -2.8
2000/09/26 17:20,   -5.5,   -5.7,   -5.5,   -6.3,   -6.0,   -6.6,   -6.1,   -5.4,   -5.7,   -6.0,   -5.5,   -5.6,   -5.5,   -5.6,   -5.5,   -5.6,   -5.5,   -5.5,   -5.5,   -5.6,   -5.5,   -5.5,   -5.4,   -5.5,   -5.5,   -5.5,   -5.4,   -5.5,  999.0,   -5.4,   -5.5,   -5.6,   -5.5,   -5.5,   -5.6,   -5.6,   -5.5,   -5.4,   -5.5,   -5.5,   -5.5,   -5.5,   -5.5,   -5.4,   -5.5,   -5.5,   -5.6,   -5.5,   -5.4,   -5.5,   -5.5,   -5.5,   -5.5,   -5.5,   -5.6,   -5.6,   -5.5,   -5.5
2000/09/26 17:30,   -5.5,   -5.5,   -5.6,   -5.6,   -5.5,   -5.6,   -5.5,   -5.5,   -5.5,   -5.5,  999.0,   -5.5,   -5.6,   -5.4,   -5.5,   -5.4,   -5.4,   -5.5,   -5.5,   -5.5,   -5.5,   -5.5,   -5.5,   -5.4,   -5.5,   -5.6,   -0.0,  999.0,   -3.7,   -5.5,   -2.8,   -2.7,   -5.5,   -5.6,   -5.6,   -5.5,   -5.5,   -5.5,   -5.6,   -5.6,   -0.0,   -5.6,   -3.7,  999.0,   -2.7,   -5.4,   -5.6,   -5.5,   -2.8,   -2.8,    0.0,   -5.5,    0.1,   -1.8,   -2.7,   -1.9,    2.7,    0.1
2000/09/26 17:40,    5.5,    5.4,    5.5,    5.4,    5.6,    5.5,    5.5,    5.5,    5.6,    5.5,    5.5,    5.4,    5.6,    5.5,    5.5,    5.5,    5.6,  999.0,  999.0,    5.6,    5.5,  999.0,  999.0,  999.0,  999.0,  999.0,    5.5,  999.0,  999.0,    5.5,    5.5,  999.0,   -3.7,   -5.6,   -3.7,   -3.7,   -5.6,   -5.5,   -5.6,   -2.8,   -2.7,   -5.6,   -1.8,   -5.5,   -5.5,   -0.0,  999.0,    5.5,    5.4,    5.4,    5.5,    5.5,    5.5,    5.5,    5.4,    5.5,    5.6,    5.4
2000/09/26 17:50,    1.8,   -5.6,   -5.5,  999.0,    5.5,  999.0,   -0.1,    5.6,    5.4,    5.5,    5.5,    5.5,    5.5,    5.6,    5.5,    5.6,  999.0,    5.5,    5.5,  999.0,  999.0,  999.0,  999.0,  999.0,  999.0,  999.0,   -5.5,   -5.5,   -5.4,   -5.6,   -5.5,   -5.6,   -5.5,   -5.5,   -5.5,   -5.5,   -5.5,   -5.5,   -5.5,   -5.5,   -5.6,   -5.5,   -5.5,   -5.5,   -5.6,   -5.5,   -5.5,   -5.5,   -5.6,   -5.5,   -5.5,   -5.5,   -5.5,    5.4,   -5.5,   -5.5,    5.5,    5.4
2000/09/26 18:00,    5.5,  999.0,  999.0,  999.0,    5.5,    5.6,    5.5,    5.5,    5.5,    5.4,  999.0,    5.6,    5.5,    5.5,  999.0,    5.5,  999.0,    5.6,  999.0,  999.0,  999.0,    5.6,  999.0,    5.6,  999.0,  999.0,  999.0,    5.5,    5.7,  999.0,  999.0,    5.2,    5.5,    5.7,   -5.4,   -5.6,    0.0,   -5.5,   -5.7,  999.0,   -0.0,   -5.5,  999.0,    5.5,  999.0,    5.5,  999.0,    5.5,  999.0,    5.5,  999.0,    5.6,    5.7,  999.0,  999.0,    5.5,  999.0,  999.0
2000/09/26 18:10,    5.5,    5.5,    3.7,  999.0,    5.3,    5.4,    5.5,  999.0,    5.4,    5.5,    5.4,    5.2,    5.6,    5.5,  999.0,    5.4,  999.0,    0.1,    5.5,  999.0,  999.0,   -5.6,  999.0,  999.0,   -5.5,   -5.5,  999.0,   -5.4,    5.5,   -5.5,   -5.6,  999.0,   -5.6,    5.5,  999.0,   -5.5,   -5.4,  999.0,   -5.5,   -5.4,   -5.6,   -5.6,    5.5,    5.6,   -5.6,  999.0,   -5.4,   -5.5,   -5.4,   -5.5,   -5.5,   -1.8,   -1.9,   -5.6,   -0.0,   -5.4,   -5.5,   -0.0
2000/09/26 18:20,    2.8,    5.5,   -5.4,    5.5,   -0.0,   -5.5,    5.5,    5.5,    5.6,  999.0,    5.5,   -5.6,  999.0,    5.5,    5.5,    5.5,    5.5,    5.7,    5.6,    5.4,    5.5,    5.5,    5.6,    5.5,  999.0,    5.5,    5.5,    5.5,    5.6,    5.5,    5.5,    5.5,    0.0,  999.0,   -5.5,   -5.5,    5.5,   -0.1,   -0.1,  999.0,    5.6,  999.0,    5.5,    5.5,  999.0,  999.0,    5.6,    5.6,    5.6,    5.5,    5.5,  999.0,    5.5,    5.5,    5.6,    5.6,  999.0,    5.5
2000/09/26 18:30,   -5.5,  999.0,   -5.5,   -0.5,  999.0,   -5.5,   -5.5,  999.0,  999.0,   -5.6,   -5.6,  999.0,   -5.5,   -5.6,   -5.5,   -2.3,  999.0,   -5.5,   -5.6,  999.0,   -0.0,   -5.4,  999.0,    5.6,  999.0,   -1.9,    0.0,    5.5,  999.0,    0.0,   -0.0,    0.1,  999.0,   -5.5,    0.1,    0.0,   -5.6,  999.0,    5.6,    5.6,    5.6,    5.6,  999.0,   -0.0,   -5.4,   -5.5,   -5.5,   -5.5,   -3.7,   -5.5,    5.6,   -5.4,   -5.6,   -5.5,   -5.5,   -2.8,   -5.6,   -2.8
2000/09/26 18:40,    0.0,    5.6,  999.0,   -5.5,  999.0,   -5.5,   -0.5,    5.6,  999.0,   -5.5,    5.7,   -5.5,  999.0,    0.1,  999.0,  999.0,  999.0,  999.0,  999.0,   -5.5,   -5.5,    5.6,   -5.5,  999.0,    5.6,    5.6,    5.7,    5.4,   -0.0,    5.5,   -0.1,    5.5,    5.5,    5.6,    1.9,    5.5,    5.5,    3.7,  999.0,    5.5,    5.6,    5.5,    5.4,    5.6,    5.5,    5.4,    5.6,    5.5,    5.5,   -5.5,   -5.5,  999.0,    0.1,    0.1,    1.9,    5.5,    5.5,    0.1
2000/09/26 18:50,   -5.5,  999.0,  999.0,  999.0,    0.8,  999.0,   -0.0,    0.5,  999.0,  999.0,  999.0,  999.0,  999.0,  999.0,  999.0,  999.0,  999.0,    5.5,    5.6,    5.6,    5.4,    5.5,  999.0,    5.6,    5.5,    5.6,    5.6,    5.4,    5.5,    5.5,    5.5,    5.5,    5.6,    5.5,    5.5,    5.5,    5.4,    5.5,    5.4,    5.5,    5.5,    5.5,    5.6,    5.4,    5.5,    5.5,    5.6,    5.6,    5.5,    5.5,    5.5,    5.5,    5.6,  999.0,    5.5,    5.5,    5.5,    5.5
2000/09/26 19:00,   -5.5,  999.0,  999.0,  999.0,  999.0,  999.0,  999.0,  999.0,  999.0,  999.0,   -5.5,   -5.4,   -0.2,   -1.5,  999.0,   -5.6,  999.0,  999.0,    0.0,    0.0,    5.5,    5.4,    5.6,  999.0,  999.0,    5.4,   -5.7,    0.1,    5.6,   -5.4,   -0.1,    0.0,   -0.1,  999.0,    5.5,   -5.5,   -1.8,   -5.5,   -1.9,    5.6,  999.0,  999.0,  999.0,    5.4,   -1.8,   -2.7,   -5.6,   -1.8,   -5.4,   -5.6,   -5.7,   -5.5,   -5.5,  999.0,   -2.7,  999.0,   -1.8,   -2.7
2000/09/26 19:10,   -2.8,  999.0,    5.5,  999.0,  999.0,    5.6,  999.0,  999.0,  999.0,    5.5,  999.0,   -5.3,  999.0,   -5.5,   -5.6,   -5.5,  999.0,   -5.5,  999.0,  999.0,  999.0,  999.0,   -4.6,  999.0,  999.0,  999.0,   -5.6,   -5.6,    5.4,    0.0,  999.0,    0.1,   -5.4,    5.7,    0.1,    5.5,  999.0,  999.0,  999.0,  999.0,  999.0,   -5.5,    5.6,  999.0,   -5.6,   -1.9,    0.1,   -5.5,   -5.6,   -5.6,   -5.7,   -5.6,  999.0,   -5.5,   -1.8,   -0.0,   -5.5,   -5.4
2000/09/26 19:20,   -5.5,  999.0,  999.0,  999.0,  999.0,  999.0,    2.8,    1.5,  999.0,  999.0,  999.0,    5.4,  999.0,  999.0,    5.5,    5.5,    5.4,    5.4,    5.5,   -5.3,   -5.5,  999.0,  999.0,  999.0,  999.0,   -5.5,    5.4,   -5.4,  999.0,   -5.6,   -5.4,   -5.5,   -5.6,   -5.4,   -5.4,  999.0,   -5.5,   -5.5,   -5.5,  999.0,   -5.5,   -5.5,  999.0,   -5.5,   -5.5,   -5.5,   -5.6,   -5.5,   -5.5,   -5.6,   -5.5,   -5.5,   -5.6,   -5.5,   -5.4,   -5.5,   -5.4,   -5.5
2000/09/26 19:30,    1.8,  999.0,    5.6,    0.5,    0.1,    5.5,    5.5,    3.6,    0.1,    5.4,    5.4,    5.6,    5.4,    5.4,  999.0,    5.5,  999.0,    5.5,    5.6,    5.5,    5.6,    5.7,  999.0,  999.0,    5.5,    5.5,    0.0,   -5.6,    5.6,    5.6,   -5.4,    5.6,   -0.0,    5.4,    0.0,   -5.5,   -0.0,    0.1,   -5.4,  999.0,  999.0,  999.0,   -5.5,   -2.8,    5.5,   -5.5,   -5.6,  999.0,   -0.0,    1.8,    5.3,    0.1,   -5.6,   -5.5,   -5.5,  999.0,  999.0,   -2.8
2000/09/26 19:40,   -5.5,  999.0,  999.0,  999.0,  999.0,   -5.4,  999.0,  999.0,  999.0,   -5.6,   -0.0,    5.4,  999.0,    5.4,  999.0,    5.7,    5.4,  999.0,    5.5,   -5.5,    5.4,  999.0,    0.0,    5.5,  999.0,   -5.4,   -5.4,  999.0,   -5.4,   -5.5,  999.0,   -5.6,   -5.5,   -5.4,  999.0,   -5.5,  999.0,   -5.6,   -5.5,   -5.5,   -5.6,   -5.7,  999.0,   -5.5,  999.0,   -5.5,  999.0,   -5.5,  999.0,  999.0,   -5.5,   -5.6,   -5.6,   -5.4,   -5.4,   -5.5,   -5.6,   -5.5
2000/09/26 19:50,    5.5,   -0.7,    5.5,  999.0,  999.0,    5.5,  999.0,   -0.5,  999.0,   -2.6,   -5.4,   -0.8,   -5.6,    5.5,    0.4,    0.1,  999.0,   -5.6,  999.0,   -5.6,  999.0,    0.1,   -0.1,  999.0,  999.0,   -5.5,  999.0,    5.6,  999.0,  999.0,    5.6,  999.0,    0.0,    0.1,   -5.4,  999.0,    0.1,   -5.5,  999.0,  999.0,  999.0,  999.0,  999.0,  999.0,  999.0,    5.4,   -5.5,    5.7,    5.5,    5.6,    5.5,   -5.5,    0.1,  999.0,    5.5,    5.5,   -5.6,    5.7
2000/09/26 20:00,   -5.5,   -5.6,   -5.5,  999.0,  999.0,   -5.5,   -5.5,   -5.5,   -5.5,   -5.4,   -5.5,  999.0,   -5.5,   -5.6,   -5.5,  999.0,  999.0,  999.0,  999.0,  999.0,   -5.5,  999.0,   -5.5,  999.0,    5.4,   -5.4,    1.5,  999.0,   -5.6,    5.5,  999.0,   -5.5,   -5.6,    5.6,  999.0,    5.5,  999.0,    5.6,  999.0,  999.0,   -5.6,   -5.5,   -5.6,   -0.0,    5.4,   -0.2,   -5.4,    5.5,    5.5,   -0.1,    5.5,    0.0,  999.0,   -5.6,    0.0,    0.1,   -0.1,    2.7
2000/09/26 20:10,   -0.5,  999.0,  999.0,   -0.4,  999.0,  999.0,    1.4,  999.0,  999.0,    0.2,  999.0,    5.4,    5.5,    5.5,  999.0,    0.4,  999.0,  999.0,  999.0,    4.0,  999.0,  999.0,  999.0,  999.0,  999.0,  999.0,  999.0,  999.0,  999.0,  999.0,  999.0,  999.0,  999.0,  999.0,  999.0,  999.0,  999.0,  999.0,  999.0,  999.0,  999.0,  999.0,  999.0,  999.0,  999.0,  999.0,  999.0,  999.0,  999.0,  999.0,   -5.4,  999.0,   -5.5,  999.0,   -5.5,   -5.5,   -5.5,  999.0
2000/09/26 20:20,   -0.8,   -0.7,  999.0,  999.0,    0.2,  999.0,  999.0,  999.0,  999.0,  999.0,  999.0,  999.0,  999.0,  999.0,  999.0,   -1.8,  999.0,  999.0,  999.0,  999.0,   -2.0,  999.0,  999.0,  999.0,  999.0,  999.0,   -3.3,  999.0,  999.0,  999.0,  999.0,  999.0,  999.0,  999.0,  999.0,  999.0,  999.0,  999.0,  999.0,  999.0,  999.0,   -5.6,   -5.4,   -5.6,   -5.4,   -5.5,  999.0,   -5.4,   -5.6,   -5.5,  999.0,   -3.9,  999.0,   -5.5,   -5.6,   -5.7,   -5.6,   -5.5
2000/09/26 20:30,   -5.5,  999.0,  999.0,  999.0,  999.0,  999.0,    0.0,   -0.9,  999.0,  999.0,  999.0,   -5.5,  999.0,  999.0,  999.0,    1.8,   -5.6,  999.0,  999.0,  999.0,    5.5,    5.5,  999.0,  999.0,    5.4,    5.5,    5.6,    5.5,    5.5,    5.5,    5.5,    5.6,    5.7,    5.5,    5.4,    5.4,  999.0,    5.6,    5.5,  999.0,  999.0,  999.0,  999.0,    5.6,    5.5,    5.5,    5.6,    5.5,    5.5,    5.4,    5.6,    5.5,    5.6,    5.5,    5.5,    5.5,    5.5,    5.5
2000/09/26 20:40,   -5.5,  999.0,  999.0,  999.0,  999.0,   -0.5,  999.0,    0.1,  999.0,  999.0,  999.0,    5.5,    5.5,    5.5,  999.0,  999.0,    5.4,  999.0,    5.5,    5.5,  999.0,    5.5,    5.4,    5.6,    5.5,  999.0,    5.4,    5.5,    5.6,    5.6,  999.0,  999.0,    5.6,  999.0,    5.7,    5.5,  999.0,    5.5,  999.0,  999.0,  999.0,  999.0,  999.0,    5.3,    5.5,    5.5,  999.0,    5.5,    5.6,    5.6,  999.0,    5.7,  999.0,    5.4,    5.4,    5.6,    5.5,  999.0
2000/09/26 20:50,   -5.5,   -5.5,  999.0,  999.0,  999.0,   -5.5,  999.0,   -5.4,   -0.6,   -5.5,   -5.5,   -5.5,    0.8,  999.0,    5.5,    5.5,  999.0,   -4.1,   -5.4,   -5.5,   -5.6,   -5.4,    5.4,  999.0,  999.0,   -0.1,    5.5,   -0.0,  999.0,    5.4,   -5.6,   -5.5,   -0.0,  999.0,  999.0,   -0.1,   -5.4,   -5.5,  999.0,    5.5,  999.0,    5.5,  999.0,   -5.5,  999.0,   -0.1,   -5.6,   -5.6,  999.0,   -5.3,  999.0,   -5.5,   -5.4,  999.0,  999.0,   -5.5,   -5.5,   -5.5
2000/09/26 21:00,    5.5,  999.0,  999.0,    5.5,  999.0,    5.6,   -0.3,    5.4,  999.0,    5.5,    5.5,    5.6,    5.7,    5.5,  999.0,    5.4,  999.0,  999.0,    5.3,    5.4,  999.0,  999.0,  999.0,  999.0,  999.0,  999.0,  999.0,  999.0,  999.0,  999.0,   -5.6,   -2.8,  999.0,  999.0,   -5.5,  999.0,  999.0,  999.0,   -5.5,  999.0,  999.0,  999.0,  999.0,    5.4,   -5.6,   -5.4,  999.0,   -5.5,  999.0,   -5.5,  999.0,  999.0,  999.0,  999.0,  999.0,   -5.5,  999.0,   -5.4
2000/09/26 21:10,    5.5,   -0.1,  999.0,  999.0,  999.0,    5.4,    5.5,  999.0,  999.0,    0.1,    0.0,  999.0,  999.0,  999.0,  999.0,  999.0,  999.0,  999.0,  999.0,  999.0,  999.0,  999.0,  999.0,  999.0,  999.0,    0.1,  999.0,  999.0,  999.0,  999.0,  999.0,  999.0,  999.0,  999.0,  999.0,    5.5,  999.0,    5.5,    5.5,  999.0,    5.5,    5.5,    5.5,  999.0,    5.5,  999.0,    5.7,    0.1,    5.5,  999.0,  999.0,   -5.4,  999.0,  999.0,    5.4,    0.1,  999.0,    0.1
2000/09/26 21:20,  999.0,  999.0,   -3.1,  999.0,  999.0,   -5.6,   -2.8,   -5.4,  999.0,   -5.6,   -5.5,   -5.4,   -5.5,   -5.6,   -5.6,  999.0,  999.0,   -5.5,   -5.5,  999.0,   -5.6,   -5.5,   -5.5,  999.0,  999.0,  999.0,  999.0,   -5.5,  999.0,   -5.4,    5.6,    5.4,  999.0,    5.5,    0.1,    0.0,    5.5,    0.1,    5.5,    5.5,    5.5,    5.6,    5.6,    1.9,  999.0,   -0.1,    5.4,    5.6,    1.9,    5.4,    5.7,    5.6,    5.5,   -5.5,    5.4,    0.0,    0.2,    5.5
2000/09/26 21:30,  999.0,  999.0,   -2.7,    1.1,  999.0,  999.0,  999.0,   -5.5,  999.0,   -5.6,   -5.4,   -5.5,   -5.8,    1.7,  999.0,  999.0,  999.0,  999.0,   -0.0,  999.0,  999.0,  999.0,  999.0,  999.0,  999.0,  999.0,  999.0,  999.0,  999.0,  999.0,    5.5,  999.0,    5.5,  999.0,    5.4,    5.5,    5.4,    5.6,  999.0,  999.0,  999.0,    5.5,    5.6,  999.0,   -5.4,    5.4,   -5.5,   -5.4,   -5.6,   -5.5,   -5.5,  999.0,   -5.6,   -5.6,   -0.1,   -5.6,   -5.5,   -0.1
2000/09/26 21:40,    5.5,    5.5,   -0.1,   -5.4,  999.0,    5.5,    5.6,   -5.4,  999.0,    2.8,    0.0,    0.1,   -0.0,   -0.0,    5.5,    2.8,   -5.5,    5.7,    5.6,    5.6,  999.0,   -5.5,    0.1,    5.6,  999.0,    5.6,   -5.5,  999.0,   -0.0,    5.5,    2.8,    5.6,    3.7,    5.6,    0.0,  999.0,    0.0,  999.0,   -0.0,    5.4,    5.5,    5.5,    5.5,    5.5,    5.6,   -5.5,  999.0,    5.5,   -5.6,   -5.4,   -5.6,    0.0,    5.6,   -5.5,   -1.9,    0.0,   -1.8,   -3.9
2000/09/26 21:50,    5.5,    5.5,    5.5,    5.5,    5.6,    5.4,  999.0,    5.5,   -0.5,    5.4,  999.0,    5.5,    5.6,  999.0,    5.5,    5.5,    2.9,    5.5,  999.0,    5.6,  999.0,    5.5,  999.0,  999.0,  999.0,    5.6,    5.6,    5.5,    0.0,   -5.5,   -1.8,   -5.6,   -1.8,    5.4,  999.0,   -1.8,   -5.3,  999.0,    5.5,    5.4,    5.6,  999.0,    5.5,    5.5,    5.5,    1.9,    0.0,    0.0,   -5.4,    5.6,    0.1,   -5.4,   -5.4,    0.0,    5.6,   -0.0,   -5.5,   -0.0
2000/09/26 22:00,   -1.8,    0.1,    0.0,   -0.0,    5.5,    5.6,    5.7,    5.6,   -1.8,   -5.5,   -5.5,  999.0,   -5.6,  999.0,  999.0,    0.1,  999.0,   -5.5,   -5.5,    5.5,   -5.4,   -0.0,   -5.4,  999.0,    5.5,   -0.0,  999.0,   -0.1,   -0.0,   -1.8,   -0.1,   -0.1,    0.0,    5.4,    0.0,  999.0,   -1.9,  999.0,    0.0,    5.5,    5.5,   -0.1,    5.4,   -1.8,   -1.9,   -1.9,   -1.9,   -1.8,   -5.5,   -0.1,   -0.1,   -1.9,   -5.5,    5.6,    5.5,   -5.5,   -5.6,    5.5
2000/09/26 22:10,   -1.8,    5.8,   -0.9,   -5.5,   -5.5,    5.4,    5.6,    0.0,   -5.6,   -5.5,   -5.5,   -0.0,    0.1,  999.0,   -5.5,  999.0,   -0.0,    0.0,   -5.5,   -0.1,   -5.6,   -5.5,   -5.6,  999.0,    5.5,  999.0,   -5.5,   -3.7,   -5.5,    2.3,   -5.5,   -5.5,   -5.5,   -5.5,    0.0,   -5.5,   -5.5,   -5.5,    0.0,    5.4,  999.0,   -5.4,  999.0,   -5.5,   -2.7,  999.0,  999.0,   -1.8,   -5.5,   -5.4,   -5.6,   -1.9,   -5.7,   -5.5,   -1.8,   -3.8,   -0.0,   -5.6
2000/09/26 22:20,   -5.5,    0.1,   -5.5,   -5.6,   -2.7,  999.0,  999.0,   -5.4,  999.0,  999.0,   -5.6,  999.0,   -5.4,   -5.5,   -5.4,   -5.5,   -5.5,   -5.5,   -5.5,   -5.5,  999.0,   -5.4,  999.0,   -5.5,  999.0,  999.0,   -5.6,   -5.4,   -5.5,   -5.5,   -5.5,   -5.5,  999.0,   -5.5,   -5.5,   -5.6,   -5.5,   -5.5,   -5.5,   -5.5,  999.0,   -5.6,  999.0,   -5.4,   -5.5,   -5.4,   -5.5,   -5.5,  999.0,  999.0,  999.0,   -5.6,   -5.5,  999.0,   -5.5,    5.5,   -5.4,   -5.5
2000/09/26 22:30,   -2.1,  999.0,  999.0,  999.0,  999.0,  999.0,  999.0,  999.0,  999.0,  999.0,   -5.6,   -5.4,   -5.5,   -5.4,   -5.5,  999.0,   -5.5,   -5.4,   -5.5,   -5.5,   -5.5,   -5.4,   -5.5,  999.0,  999.0,   -5.5,   -5.4,   -5.6,   -5.4,   -5.5,   -5.4,  999.0,   -5.5,   -1.9,   -5.5,   -5.4,   -5.5,   -5.5,  999.0,   -5.5,  999.0,   -5.4,  999.0,    5.5,   -0.0,    5.5,   -0.0,    5.5,    0.0,   -0.0,    5.5,    1.9,    1.9,    1.9,   -0.1,    0.0,    0.0,    5.5
2000/09/26 22:40,    5.5,    0.5,    5.5,    5.5,    5.6,  999.0,    5.4,    4.6,    5.4,    5.4,    5.8,    5.5,  999.0,    5.6,  999.0,  999.0,    5.6,    5.5,    5.7,    5.4,   -5.5,  999.0,   -5.5,   -5.5,  999.0,   -0.1,   -5.5,  999.0,  999.0,    5.6,   -5.4,   -5.3,  999.0,    5.7,    5.5,    5.5,   -0.0,  999.0,   -5.5,  999.0,    5.4,  999.0,  999.0,  999.0,   -5.5,    5.6,    5.5,    5.5,    5.5,    0.0,  999.0,    5.5,    2.8,    5.5,    5.5,   -5.4,    2.7,    5.5
2000/09/26 22:50,   -0.0,  999.0,   -0.1,  999.0,    5.4,    5.5,  999.0,    5.5,  999.0,  999.0,    5.4,  999.0,    5.5,    5.6,    5.5,  999.0,    5.4,  999.0,    5.5,  999.0,    5.5,    5.5,    5.6,  999.0,  999.0,    5.6,  999.0,    5.6,    5.5,  999.0,  999.0,    5.6,  999.0,  999.0,  999.0,  999.0,   -5.4,   -0.0,    5.4,  999.0,  999.0,  999.0,  999.0,  999.0,  999.0,  999.0,    0.1,    5.5,    5.6,    5.5,    5.5,   -5.4,   -0.0,  999.0,    2.8,    0.1,    5.5,    0.0
2000/09/26 23:00,    0.0,  999.0,   -5.6,   -5.6,   -5.4,   -5.5,    0.3,  999.0,  999.0,    0.3,    0.5,  999.0,    5.5,  999.0,    5.6,  999.0,    5.6,  999.0,  999.0,  999.0,    5.5,    5.4,    5.6,  999.0,    5.4,    5.4,    5.6,    5.5,    5.5,    5.4,  999.0,    5.5,    5.5,    5.5,    5.5,    5.4,    5.4,    5.6,    5.3,    5.4,    5.5,  999.0,    5.6,    5.5,    5.5,    5.5,    5.6,    5.6,    5.5,    5.5,    5.5,    5.5,  999.0,    5.5,  999.0,    5.4,    5.5,    5.5
2000/09/26 23:10,   -3.7,  999.0,  999.0,    5.5,  999.0,    5.4,  999.0,    5.4,  999.0,  999.0,    5.4,  999.0,  999.0,    5.5,  999.0,   -5.4,   -5.6,  999.0,   -5.4,    5.6,    5.5,    5.4,    5.5,  999.0,    5.4,  999.0,    5.5,    5.4,    5.5,    5.5,    5.4,    5.5,    5.5,    5.5,    5.4,    5.4,    5.5,    5.5,    5.6,    5.5,    5.4,    5.5,    5.5,    5.5,    5.6,  999.0,    5.5,    5.5,    5.6,    5.5,    5.5,  999.0,  999.0,  999.0,    5.4,    5.5,    5.5,   -5.6
2000/09/26 23:20,    3.7,    5.5,    0.0,    1.8,    2.7,    5.4,    5.5,   -0.0,    5.5,    5.5,    0.0,   -0.0,    5.6,    5.6,    3.7,    5.5,    5.4,    0.1,    5.5,    5.4,    5.5,  999.0,    5.5,    5.5,    5.5,    5.6,    5.5,    5.5,    5.5,    5.5,    5.6,    5.5,    5.5,    5.4,    5.6,    5.5,    5.5,    5.6,  999.0,    5.6,    5.5,    5.4,    5.6,    5.5,    5.5,    5.5,    5.6,    5.6,    5.5,    5.5,    5.5,    5.6,    5.6,    5.5,    5.6,    5.4,    5.6,    5.5
2000/09/26 23:30,    5.5,    5.6,  999.0,    5.6,    5.5,    5.6,   -1.5,    5.4,  999.0,    2.7,    2.6,  999.0,    5.4,    5.5,    5.4,    3.6,    5.6,  999.0,    5.5,  999.0,  999.0,  999.0,    5.5,    5.6,    5.5,    5.6,    5.6,    5.5,  999.0,  999.0,    5.4,    5.5,    5.5,  999.0,    5.6,  999.0,    5.5,    5.7,    5.3,  999.0,    5.5,    5.7,  999.0,    5.6,  999.0,    5.4,    5.6,  999.0,    5.5,  999.0,    5.5,  999.0,    5.5,    5.5,   -5.5,  999.0,    0.1,   -0.0
2000/09/26 23:40,   -5.5,   -5.5,   -5.5,   -5.5,   -5.4,   -5.6,   -2.5,   -5.4,   -5.5,   -5.4,   -5.4,   -5.5,   -5.4,   -5.4,   -5.4,   -5.5,   -5.5,   -5.5,   -5.4,   -5.5,   -5.4,   -5.6,  999.0,  999.0,  999.0,   -5.4,   -5.5,   -5.5,  999.0,   -0.0,  999.0,    5.5,   -0.1,  999.0,    5.5,    0.1,    0.1,  999.0,    0.0,    5.6,    5.5,  999.0,    5.5,    2.7,    2.8,    0.1,    5.4,   -5.4,    0.0,   -5.4,   -0.0,    0.2,    5.5,    0.0,   -0.0,    5.5,    0.0,   -0.0
2000/09/26 23:50,    5.5,    5.4,    5.7,  999.0,  999.0,  999.0,    5.6,    0.0,    5.6,  999.0,    5.5,  999.0,    5.5,    5.6,  999.0,    5.4,    5.6,    5.4,    5.6,  999.0,  999.0,    5.4,  999.0,    5.6,    5.5,    5.6,    5.4,    5.5,    5.5,  999.0,    5.4,  999.0,  999.0,    5.5,  999.0,  999.0,  999.0,    5.5,    5.7,  999.0,    5.5,  999.0,  999.0,    5.5,    5.5,  999.0,    5.3,   -5.7,   -5.6,    5.4,   -0.1,    1.8,    0.0,   -5.4,    5.5,   -0.0,    1.9,    5.5
